CW2046 Weather Reports


time (UTC)temp
C
wind
direction
speed
KPH
gust
KPH
rain 1hr
cm
rain 24hr
cm
rain mn
cm
humidity
%
barometer
mb
20260510162702 28 311 0.0 3.2 0.00 0.00 0.00 39 1016.0
20260510162602 28 312 0.0 3.2 0.00 0.00 0.00 40 1016.1
20260510162503 28 312 0.0 3.2 0.00 0.00 0.00 39 1016.0
20260510162403 28 309 0.0 3.2 0.00 0.00 0.00 40 1016.0
20260510162305 28 60 0.0 3.2 0.00 0.00 0.00 42 1016.0
20260510162002 28 318 0.0 3.2 0.00 0.00 0.00 39 1016.1
20260510161902 28 304 0.0 3.2 0.00 0.00 0.00 43 1016.1
20260510161802 28 300 0.0 3.2 0.00 0.00 0.00 39 1016.0
20260510161703 28 108 0.0 3.2 0.00 0.00 0.00 40 1016.2
20260510161505 28 136 0.0 3.2 0.00 0.00 0.00 40 1015.6
20260510161502 28 136 0.0 3.2 0.00 0.00 0.00 40 1016.0
20260510161403 28 136 0.0 3.2 0.00 0.00 0.00 42 1016.1
20260510161103 27 345 0.0 3.2 0.00 0.00 0.00 46 1016.1
20260510161002 27 344 0.0 3.2 0.00 0.00 0.00 44 1016.0
20260510160802 27 344 0.0 3.2 0.00 0.00 0.00 44 1016.1
20260510160704 27 344 0.0 3.2 0.00 0.00 0.00 45 1016.1
20260510160602 27 340 0.0 3.2 0.00 0.00 0.00 45 1016.0
20260510160502 27 340 0.0 3.2 0.00 0.00 0.00 44 1016.1
20260510160403 27 342 0.0 3.2 0.00 0.00 0.00 45 1016.2
20260510160303 27 335 0.0 3.2 0.00 0.00 0.00 43 1016.1
20260510160202 27 332 0.0 3.2 0.00 0.00 0.00 45 1016.0
20260510160005 27 329 0.0 3.2 0.00 0.00 0.00 46 1015.6
20260510160002 27 329 1.6 3.2 0.00 0.00 0.00 46 1016.0
20260510155901 26 249 1.6 3.2 0.00 0.00 0.00 44 1016.1
20260510155801 26 248 1.6 3.2 0.00 0.00 0.00 48 1016.2
20260510155702 26 298 1.6 3.2 0.00 0.00 0.00 48 1016.0
20260510155602 26 323 1.6 3.2 0.00 0.00 0.00 47 1016.1
20260510155502 26 318 1.6 3.2 0.00 0.00 0.00 50 1016.1
20260510155401 26 309 1.6 3.2 0.00 0.00 0.00 47 1016.1
20260510155301 26 243 1.6 3.2 0.00 0.00 0.00 46 1016.1
20260510155200 26 277 1.6 3.2 0.00 0.00 0.00 44 1016.1
20260510155101 26 248 1.6 3.2 0.00 0.00 0.00 47 1016.1
20260510155002 26 323 1.6 3.2 0.00 0.00 0.00 46 1016.1
20260510154902 26 316 1.6 3.2 0.00 0.00 0.00 46 1016.2
20260510154801 26 323 0.0 3.2 0.00 0.00 0.00 45 1016.1
20260510154502 26 314 0.0 3.2 0.00 0.00 0.00 44 1016.1
20260510154402 26 203 0.0 3.2 0.00 0.00 0.00 45 1016.1
20260510154202 26 333 0.0 3.2 0.00 0.00 0.00 48 1016.2
20260510154101 26 333 0.0 3.2 0.00 0.00 0.00 50 1016.1
20260510154003 26 15 0.0 3.2 0.00 0.00 0.00 47 1016.2
20260510153901 26 348 0.0 3.2 0.00 0.00 0.00 48 1016.2
20260510153802 26 326 0.0 3.2 0.00 0.00 0.00 48 1016.2
20260510153702 26 321 0.0 3.2 0.00 0.00 0.00 48 1016.2
20260510153602 25 331 0.0 3.2 0.00 0.00 0.00 48 1016.2
20260510153502 25 345 0.0 3.2 0.00 0.00 0.00 48 1016.3
20260510153402 25 350 0.0 3.2 0.00 0.00 0.00 49 1016.2
20260510153201 25 121 0.0 3.2 0.00 0.00 0.00 49 1016.2
20260510153003 25 333 0.0 1.6 0.00 0.00 0.00 50 1015.9
20260510152901 25 330 0.0 1.6 0.00 0.00 0.00 51 1016.3
20260510152802 25 315 0.0 1.6 0.00 0.00 0.00 52 1016.2
20260510152601 25 325 0.0 3.2 0.00 0.00 0.00 52 1016.2
20260510152401 25 332 0.0 3.2 0.00 0.00 0.00 52 1016.2
20260510152306 25 331 0.0 3.2 0.00 0.00 0.00 51 1016.3
20260510152102 25 331 0.0 3.2 0.00 0.00 0.00 50 1016.3
20260510151902 24 324 0.0 3.2 0.00 0.00 0.00 53 1016.3
20260510151601 24 318 0.0 3.2 0.00 0.00 0.00 55 1016.3
20260510151501 24 271 0.0 3.2 0.00 0.00 0.00 56 1016.0
20260510151302 24 321 0.0 3.2 0.00 0.00 0.00 57 1016.3
20260510151201 24 331 0.0 3.2 0.00 0.00 0.00 57 1016.2
20260510151102 23 359 0.0 3.2 0.00 0.00 0.00 56 1016.3
20260510151003 23 278 0.0 3.2 0.00 0.00 0.00 55 1016.3
20260510150903 23 266 0.0 3.2 0.00 0.00 0.00 58 1016.3
20260510150801 23 41 0.0 1.6 0.00 0.00 0.00 58 1016.2
20260510150703 23 125 0.0 1.6 0.00 0.00 0.00 57 1016.2
20260510150601 23 105 0.0 3.2 0.00 0.00 0.00 59 1016.2
20260510150502 23 104 0.0 3.2 0.00 0.00 0.00 57 1016.2
20260510150402 23 101 0.0 3.2 0.00 0.00 0.00 57 1016.2
20260510150301 23 332 0.0 3.2 0.00 0.00 0.00 56 1016.1
20260510150005 23 331 0.0 3.2 0.00 0.00 0.00 57 1016.2
20260510145902 23 335 0.0 3.2 0.00 0.00 0.00 59 1016.1
20260510145802 23 335 0.0 3.2 0.00 0.00 0.00 58 1016.2
20260510145703 23 335 0.0 3.2 0.00 0.00 0.00 57 1016.2
20260510145602 23 326 0.0 3.2 0.00 0.00 0.00 59 1016.2
20260510145502 22 314 0.0 3.2 0.00 0.00 0.00 62 1016.2
20260510145402 22 313 0.0 3.2 0.00 0.00 0.00 60 1016.0
20260510145306 22 269 0.0 1.6 0.00 0.00 0.00 60 1016.1
20260510145203 22 323 0.0 1.6 0.00 0.00 0.00 59 1016.0
20260510144903 22 323 0.0 1.6 0.00 0.00 0.00 60 1016.1
20260510144802 22 323 0.0 1.6 0.00 0.00 0.00 60 1016.0
20260510144602 22 323 0.0 1.6 0.00 0.00 0.00 60 1016.0
20260510144502 22 323 0.0 1.6 0.00 0.00 0.00 61 1016.0
20260510144402 22 323 0.0 1.6 0.00 0.00 0.00 60 1016.0
20260510144302 22 323 0.0 1.6 0.00 0.00 0.00 62 1015.9
20260510144203 22 323 0.0 3.2 0.00 0.00 0.00 61 1015.9
20260510144102 22 321 0.0 3.2 0.00 0.00 0.00 61 1015.9
20260510144002 22 311 0.0 3.2 0.00 0.00 0.00 62 1016.1
20260510143902 22 311 0.0 3.2 0.00 0.00 0.00 61 1016.1
20260510143602 22 269 0.0 3.2 0.00 0.00 0.00 64 1016.0
20260510143503 22 271 0.0 3.2 0.00 0.00 0.00 64 1016.0
20260510143402 21 308 0.0 3.2 0.00 0.00 0.00 62 1016.0
20260510143303 21 247 0.0 4.8 0.00 0.00 0.00 63 1016.0
20260510143203 21 299 0.0 1.6 0.00 0.00 0.00 65 1016.0
20260510143103 21 301 0.0 1.6 0.00 0.00 0.00 67 1016.2
20260510143002 21 300 0.0 3.2 0.00 0.00 0.00 67 1015.8
20260510142802 21 297 0.0 3.2 0.00 0.00 0.00 68 1016.0
20260510142702 21 287 0.0 3.2 0.00 0.00 0.00 67 1016.1
20260510142602 21 267 0.0 3.2 0.00 0.00 0.00 67 1016.0
20260510142403 21 304 0.0 3.2 0.00 0.00 0.00 68 1016.0
20260510142305 21 302 0.0 3.2 0.00 0.00 0.00 67 1015.9
20260510142203 21 314 0.0 1.6 0.00 0.00 0.00 69 1015.9
20260510142102 21 316 0.0 1.6 0.00 0.00 0.00 69 1016.0
20260510141902 21 311 0.0 1.6 0.00 0.00 0.00 70 1016.1
20260510141803 21 315 0.0 1.6 0.00 0.00 0.00 70 1016.1
20260510141703 21 315 0.0 1.6 0.00 0.00 0.00 71 1016.1
20260510141603 21 300 0.0 1.6 0.00 0.00 0.00 71 1016.1
20260510141503 21 298 0.0 1.6 0.00 0.00 0.00 72 1015.7
20260510141203 21 329 0.0 1.6 0.00 0.00 0.00 70 1016.1
20260510141102 20 329 0.0 1.6 0.00 0.00 0.00 70 1016.0
20260510140903 20 329 0.0 1.6 0.00 0.00 0.00 71 1016.1
20260510140803 20 329 0.0 1.6 0.00 0.00 0.00 70 1016.1
20260510140602 20 314 0.0 1.6 0.00 0.00 0.00 72 1016.0
20260510140501 20 314 0.0 1.6 0.00 0.00 0.00 71 1015.9
20260510140403 20 314 0.0 1.6 0.00 0.00 0.00 71 1016.1
20260510140302 20 313 0.0 1.6 0.00 0.00 0.00 71 1016.1
20260510140203 20 314 0.0 1.6 0.00 0.00 0.00 72 1016.0
20260510140002 20 313 0.0 1.6 0.00 0.00 0.00 73 1016.1
20260510135901 20 271 0.0 1.6 0.00 0.00 0.00 73 1016.1
20260510135802 20 271 0.0 1.6 0.00 0.00 0.00 73 1016.0
20260510135701 20 272 0.0 1.6 0.00 0.00 0.00 72 1016.0
20260510135602 20 284 0.0 1.6 0.00 0.00 0.00 74 1016.0
20260510135501 20 284 0.0 1.6 0.00 0.00 0.00 74 1016.0
20260510135401 20 284 0.0 1.6 0.00 0.00 0.00 74 1016.1
20260510135301 20 284 0.0 1.6 0.00 0.00 0.00 75 1016.0
20260510135200 20 281 0.0 1.6 0.00 0.00 0.00 74 1016.0
20260510135101 20 281 0.0 1.6 0.00 0.00 0.00 73 1016.0
20260510135001 20 281 0.0 1.6 0.00 0.00 0.00 75 1016.1
20260510134901 20 281 0.0 1.6 0.00 0.00 0.00 75 1016.0
20260510134801 20 280 0.0 0.0 0.00 0.00 0.00 75 1016.0
20260510134701 20 280 0.0 0.0 0.00 0.00 0.00 75 1016.1
20260510134601 20 280 0.0 0.0 0.00 0.00 0.00 74 1016.0
20260510134502 20 280 0.0 0.0 0.00 0.00 0.00 74 1016.1
20260510134500 20 280 0.0 0.0 0.00 0.00 0.00 74 1015.8
20260510134402 20 280 0.0 0.0 0.00 0.00 0.00 75 1016.1
20260510134301 20 271 0.0 0.0 0.00 0.00 0.00 75 1016.0
20260510134202 20 271 0.0 0.0 0.00 0.00 0.00 77 1016.1
20260510134002 20 271 0.0 0.0 0.00 0.00 0.00 77 1016.2
20260510133801 19 272 0.0 0.0 0.00 0.00 0.00 77 1016.1
20260510133701 19 271 0.0 0.0 0.00 0.00 0.00 77 1016.0
20260510133600 19 270 0.0 1.6 0.00 0.00 0.00 77 1016.0
20260510133400 19 270 0.0 1.6 0.00 0.00 0.00 77 1016.1
20260510133202 19 271 0.0 1.6 0.00 0.00 0.00 78 1016.1
20260510133002 19 270 0.0 1.6 0.00 0.00 0.00 77 1015.8
20260510132801 19 270 0.0 1.6 0.00 0.00 0.00 78 1016.2
20260510132701 19 270 0.0 1.6 0.00 0.00 0.00 78 1016.1
20260510132601 19 250 0.0 1.6 0.00 0.00 0.00 79 1016.2
20260510132402 18 270 0.0 1.6 0.00 0.00 0.00 79 1016.0
20260510132301 18 269 0.0 1.6 0.00 0.00 0.00 79 1016.2
20260510132203 18 264 0.0 0.0 0.00 0.00 0.00 79 1016.1
20260510132101 18 264 0.0 0.0 0.00 0.00 0.00 80 1016.1
20260510132001 18 264 0.0 0.0 0.00 0.00 0.00 80 1016.0
20260510131902 18 264 0.0 0.0 0.00 0.00 0.00 81 1016.0
20260510131801 18 248 0.0 0.0 0.00 0.00 0.00 81 1016.1
20260510131701 18 248 0.0 0.0 0.00 0.00 0.00 81 1016.0
20260510131603 18 247 0.0 0.0 0.00 0.00 0.00 81 1015.6
20260510131601 18 247 0.0 0.0 0.00 0.00 0.00 81 1015.9
20260510131501 18 248 0.0 0.0 0.00 0.00 0.00 82 1016.0
20260510131402 18 248 0.0 0.0 0.00 0.00 0.00 82 1016.1
20260510131201 18 248 0.0 0.0 0.00 0.00 0.00 82 1015.9
20260510131101 18 248 0.0 0.0 0.00 0.00 0.00 82 1016.0
20260510131001 18 248 0.0 0.0 0.00 0.00 0.00 83 1015.9
20260510130802 18 248 0.0 0.0 0.00 0.00 0.00 83 1015.9
20260510130701 18 248 0.0 0.0 0.00 0.00 0.00 83 1015.9
20260510130602 18 248 0.0 0.0 0.00 0.00 0.00 84 1015.9
20260510130503 18 248 0.0 0.0 0.00 0.00 0.00 84 1015.8
20260510130201 18 248 0.0 0.0 0.00 0.00 0.00 85 1015.9
20260510130004 17 248 0.0 0.0 0.00 0.00 0.00 86 1015.9
20260510125902 17 248 0.0 0.0 0.00 0.00 0.00 86 1015.8
20260510125803 17 248 0.0 0.0 0.00 0.00 0.00 87 1015.8
20260510125702 17 247 0.0 0.0 0.00 0.00 0.00 87 1015.8
20260510125603 17 248 0.0 0.0 0.00 0.00 0.00 87 1015.8
20260510125503 17 248 0.0 0.0 0.00 0.00 0.00 87 1015.7
20260510125402 17 248 0.0 0.0 0.00 0.00 0.00 88 1015.8
20260510125306 17 248 0.0 0.0 0.00 0.00 0.00 88 1015.7
20260510125102 17 248 0.0 0.0 0.00 0.00 0.00 88 1015.7
20260510125003 17 248 0.0 0.0 0.00 0.00 0.00 88 1015.7
20260510124802 17 248 0.0 0.0 0.00 0.00 0.00 89 1015.7
20260510124703 17 248 0.0 0.0 0.00 0.00 0.00 89 1015.7
20260510124602 17 248 0.0 0.0 0.00 0.00 0.00 90 1015.6
20260510124504 17 248 0.0 0.0 0.00 0.00 0.00 90 1015.3
20260510124502 17 248 0.0 0.0 0.00 0.00 0.00 90 1015.7
20260510124403 17 248 0.0 0.0 0.00 0.00 0.00 90 1015.7
20260510124303 17 248 0.0 0.0 0.00 0.00 0.00 90 1015.6
20260510124104 17 248 0.0 0.0 0.00 0.00 0.00 90 1015.7
20260510124002 17 248 0.0 0.0 0.00 0.00 0.00 90 1015.7
20260510123902 17 248 0.0 0.0 0.00 0.00 0.00 90 1015.6
20260510123804 16 248 0.0 0.0 0.00 0.00 0.00 90 1015.6
20260510123703 16 248 0.0 0.0 0.00 0.00 0.00 90 1015.6
20260510123502 16 248 0.0 0.0 0.00 0.00 0.00 90 1015.5
20260510123402 16 248 0.0 0.0 0.00 0.00 0.00 90 1015.5
20260510123302 16 248 0.0 0.0 0.00 0.00 0.00 90 1015.5
20260510123101 16 248 0.0 0.0 0.00 0.00 0.00 90 1015.4
20260510123003 16 248 0.0 0.0 0.00 0.00 0.00 90 1015.2
20260510122902 16 248 0.0 0.0 0.00 0.00 0.00 90 1015.4
20260510122803 16 248 0.0 0.0 0.00 0.00 0.00 90 1015.4
20260510122702 16 248 0.0 0.0 0.00 0.00 0.00 90 1015.4
20260510122601 16 248 0.0 0.0 0.00 0.00 0.00 90 1015.4
20260510122501 16 248 0.0 0.0 0.00 0.00 0.00 90 1015.4
20260510122402 16 248 0.0 0.0 0.00 0.00 0.00 90 1015.4
20260510122305 16 248 0.0 0.0 0.00 0.00 0.00 90 1015.4
20260510122102 16 248 0.0 0.0 0.00 0.00 0.00 90 1015.4
20260510122002 15 248 0.0 0.0 0.00 0.00 0.00 90 1015.4
20260510121902 15 248 0.0 0.0 0.00 0.00 0.00 90 1015.4
20260510121803 15 248 0.0 0.0 0.00 0.00 0.00 90 1015.4
20260510121603 15 248 0.0 0.0 0.00 0.00 0.00 90 1015.4
20260510121504 15 248 0.0 0.0 0.00 0.00 0.00 90 1015.0
20260510121502 15 248 0.0 0.0 0.00 0.00 0.00 90 1015.4
20260510121403 15 248 0.0 0.0 0.00 0.00 0.00 90 1015.4
20260510121303 15 248 0.0 0.0 0.00 0.00 0.00 90 1015.3
20260510121102 15 248 0.0 0.0 0.00 0.00 0.00 90 1015.3
20260510121002 15 248 0.0 0.0 0.00 0.00 0.00 90 1015.3
20260510120902 15 248 0.0 0.0 0.00 0.00 0.00 90 1015.4
20260510120804 15 248 0.0 0.0 0.00 0.00 0.00 90 1015.4
20260510120702 15 248 0.0 0.0 0.00 0.00 0.00 90 1015.3
20260510120602 15 248 0.0 0.0 0.00 0.00 0.00 90 1015.3
20260510120502 15 248 0.0 0.0 0.00 0.00 0.00 90 1015.2
20260510120402 15 248 0.0 0.0 0.00 0.00 0.00 90 1015.2
20260510120202 15 248 0.0 0.0 0.00 0.00 0.00 90 1015.3
20260510120003 15 248 0.0 0.0 0.00 0.00 0.00 90 1015.3
20260510115902 15 248 0.0 0.0 0.00 0.00 0.00 90 1015.2
20260510115702 15 248 0.0 0.0 0.00 0.00 0.00 90 1015.2
20260510115601 15 248 0.0 0.0 0.00 0.00 0.00 90 1015.2
20260510115501 15 248 0.0 0.0 0.00 0.00 0.00 90 1015.2
20260510115301 15 248 0.0 0.0 0.00 0.00 0.00 90 1015.3
20260510115202 15 248 0.0 0.0 0.00 0.00 0.00 90 1015.2
20260510115101 14 248 0.0 0.0 0.00 0.00 0.00 90 1015.3
20260510115001 14 248 0.0 0.0 0.00 0.00 0.00 90 1015.2
20260510114901 14 248 0.0 0.0 0.00 0.00 0.00 90 1015.3
20260510114701 14 248 0.0 0.0 0.00 0.00 0.00 90 1015.2
20260510114601 14 248 0.0 0.0 0.00 0.00 0.00 90 1015.2
20260510114503 14 246 0.0 0.0 0.00 0.00 0.00 90 1015.2
20260510114501 14 246 0.0 0.0 0.00 0.00 0.00 90 1014.9
20260510114400 14 246 0.0 0.0 0.00 0.00 0.00 90 1015.1
20260510114302 14 246 0.0 0.0 0.00 0.00 0.00 90 1015.2
20260510114201 14 246 0.0 0.0 0.00 0.00 0.00 90 1015.2
20260510114100 14 246 0.0 0.0 0.00 0.00 0.00 90 1015.2
20260510113902 14 246 0.0 0.0 0.00 0.00 0.00 90 1015.2
20260510113800 14 246 0.0 0.0 0.00 0.00 0.00 90 1015.0
20260510113701 14 246 0.0 0.0 0.00 0.00 0.00 90 1015.0
20260510113600 14 246 0.0 0.0 0.00 0.00 0.00 90 1015.1
20260510113501 14 245 0.0 0.0 0.00 0.00 0.00 90 1015.1
20260510113301 14 246 0.0 0.0 0.00 0.00 0.00 90 1015.0
20260510113201 14 246 0.0 0.0 0.00 0.00 0.00 90 1015.0
20260510113101 14 245 0.0 0.0 0.00 0.00 0.00 90 1015.1
20260510113001 14 246 0.0 0.0 0.00 0.00 0.00 90 1014.8
20260510112901 14 246 0.0 0.0 0.00 0.00 0.00 90 1015.0
20260510112801 14 246 0.0 0.0 0.00 0.00 0.00 90 1015.1
20260510112601 14 245 0.0 0.0 0.00 0.00 0.00 90 1015.0
20260510112501 14 246 0.0 0.0 0.00 0.00 0.00 90 1015.0
20260510112402 14 245 0.0 0.0 0.00 0.00 0.00 90 1015.0
20260510112305 14 246 0.0 0.0 0.00 0.00 0.00 90 1014.9
20260510112202 14 246 0.0 0.0 0.00 0.00 0.00 90 1014.8
20260510112001 14 245 0.0 0.0 0.00 0.00 0.00 90 1014.9
20260510111900 14 245 0.0 0.0 0.00 0.00 0.00 90 1014.9
20260510111802 14 246 0.0 0.0 0.00 0.00 0.00 90 1014.9
20260510111700 14 245 0.0 0.0 0.00 0.00 0.00 90 1014.8
20260510111604 14 246 0.0 0.0 0.00 0.00 0.00 90 1014.8
20260510111602 14 246 0.0 0.0 0.00 0.00 0.00 90 1014.5
20260510111500 14 246 0.0 0.0 0.00 0.00 0.00 90 1014.8
20260510111301 14 245 0.0 0.0 0.00 0.00 0.00 90 1014.7
20260510111200 14 246 0.0 0.0 0.00 0.00 0.00 90 1014.7
20260510111101 14 246 0.0 0.0 0.00 0.00 0.00 90 1014.7
20260510111002 14 246 0.0 0.0 0.00 0.00 0.00 90 1014.7
20260510110901 14 246 0.0 0.0 0.00 0.00 0.00 90 1014.7
20260510110801 14 245 0.0 0.0 0.00 0.00 0.00 90 1014.7
20260510110700 14 246 0.0 0.0 0.00 0.00 0.00 90 1014.7
20260510110600 14 246 0.0 0.0 0.00 0.00 0.00 90 1014.5
20260510110501 14 245 0.0 0.0 0.00 0.00 0.00 90 1014.6
20260510110400 14 246 0.0 0.0 0.00 0.00 0.00 90 1014.7
20260510110301 14 245 0.0 0.0 0.00 0.00 0.00 90 1014.6
20260510110201 14 246 0.0 0.0 0.00 0.00 0.00 90 1014.6
20260510110004 14 246 0.0 0.0 0.00 0.00 0.00 90 1014.3
20260510110001 14 246 0.0 0.0 0.00 0.00 0.00 90 1014.6
20260510105800 14 246 0.0 0.0 0.00 0.00 0.00 90 1014.4
20260510105601 14 245 0.0 0.0 0.00 0.00 0.00 90 1014.5
20260510105501 14 246 0.0 0.0 0.00 0.00 0.00 90 1014.4
20260510105401 14 246 0.0 0.0 0.00 0.00 0.00 90 1014.5
20260510105306 14 246 0.0 0.0 0.00 0.00 0.00 90 1014.4
20260510105200 14 245 0.0 0.0 0.00 0.00 0.00 90 1014.3
20260510105101 14 245 0.0 0.0 0.00 0.00 0.00 90 1014.3
20260510105001 14 246 0.0 0.0 0.00 0.00 0.00 90 1014.2
20260510104902 14 246 0.0 0.0 0.00 0.00 0.00 90 1014.2
20260510104802 14 246 0.0 0.0 0.00 0.00 0.00 90 1014.2
20260510104603 14 246 0.0 0.0 0.00 0.00 0.00 90 1014.2
20260510104501 14 246 0.0 0.0 0.00 0.00 0.00 90 1013.9
20260510104401 14 246 0.0 0.0 0.00 0.00 0.00 90 1014.2
20260510104301 14 246 0.0 0.0 0.00 0.00 0.00 90 1014.2
20260510104202 14 246 0.0 0.0 0.00 0.00 0.00 90 1014.2
20260510104101 14 246 0.0 0.0 0.00 0.00 0.00 90 1014.2
20260510104001 14 246 0.0 0.0 0.00 0.00 0.00 90 1014.2
20260510103902 14 246 0.0 0.0 0.00 0.00 0.00 90 1014.1
20260510103801 14 246 0.0 0.0 0.00 0.00 0.00 90 1014.1
20260510103700 14 246 0.0 0.0 0.00 0.00 0.00 90 1014.0
20260510103603 14 245 0.0 0.0 0.00 0.00 0.00 90 1014.0
20260510103500 14 246 0.0 0.0 0.00 0.00 0.00 90 1013.9
20260510103401 14 246 0.0 0.0 0.00 0.00 0.00 90 1014.0
20260510103301 14 245 0.0 0.0 0.00 0.00 0.00 90 1013.9
20260510103201 14 246 0.0 0.0 0.00 0.00 0.00 90 1014.0
20260510103102 14 246 0.0 0.0 0.00 0.00 0.00 90 1013.9
20260510103003 14 246 0.0 0.0 0.00 0.00 0.00 90 1013.9
20260510103001 14 246 0.0 0.0 0.00 0.00 0.00 90 1013.6
20260510102903 14 246 0.0 0.0 0.00 0.00 0.00 90 1013.9
20260510102800 14 245 0.0 0.0 0.00 0.00 0.00 90 1013.9
20260510102702 14 246 0.0 0.0 0.00 0.00 0.00 90 1013.9
20260510102601 14 246 0.0 0.0 0.00 0.00 0.00 90 1013.8
20260510102501 14 246 0.0 0.0 0.00 0.00 0.00 90 1013.8
20260510102400 14 245 0.0 0.0 0.00 0.00 0.00 90 1013.7
20260510102300 14 246 0.0 0.0 0.00 0.00 0.00 90 1013.7
20260510102201 14 246 0.0 0.0 0.00 0.00 0.00 90 1013.7
20260510102102 14 245 0.0 0.0 0.00 0.00 0.00 90 1013.7
20260510101901 14 246 0.0 0.0 0.00 0.00 0.00 90 1013.8
20260510101802 14 246 0.0 0.0 0.00 0.00 0.00 90 1013.6
20260510101701 14 246 0.0 0.0 0.00 0.00 0.00 90 1013.5
20260510101501 14 246 0.0 0.0 0.00 0.00 0.00 90 1013.3
20260510101301 14 248 0.0 0.0 0.00 0.00 0.00 90 1013.5
20260510101200 14 248 0.0 0.0 0.00 0.00 0.00 90 1013.6
20260510101102 14 248 0.0 0.0 0.00 0.00 0.00 90 1013.6
20260510101000 14 248 0.0 0.0 0.00 0.00 0.00 90 1013.5
20260510100800 14 248 0.0 0.0 0.00 0.00 0.00 90 1013.6
20260510100702 14 248 0.0 0.0 0.00 0.00 0.00 90 1013.7
20260510100600 14 248 0.0 0.0 0.00 0.00 0.00 90 1013.5
20260510100501 15 248 0.0 0.0 0.00 0.00 0.00 90 1013.6
20260510100300 15 248 0.0 0.0 0.00 0.00 0.00 90 1013.5
20260510100201 15 248 0.0 0.0 0.00 0.00 0.00 90 1013.6
20260510100101 15 248 0.0 0.0 0.00 0.00 0.00 90 1013.5
20260510100001 15 248 0.0 0.0 0.00 0.00 0.00 90 1013.5
20260510095902 15 248 0.0 0.0 0.00 0.00 0.00 90 1013.4
20260510095800 15 248 0.0 0.0 0.00 0.00 0.00 90 1013.3
20260510095701 15 248 0.0 0.0 0.00 0.00 0.00 90 1013.4
20260510095600 15 248 0.0 0.0 0.00 0.00 0.00 90 1013.4
20260510095500 15 248 0.0 0.0 0.00 0.00 0.00 90 1013.4
20260510095401 15 248 0.0 0.0 0.00 0.00 0.00 90 1013.4
20260510095305 15 248 0.0 0.0 0.00 0.00 0.00 90 1013.4
20260510095201 15 248 0.0 0.0 0.00 0.00 0.00 90 1013.4
20260510095101 15 248 0.0 0.0 0.00 0.00 0.00 90 1013.4
20260510095001 15 248 0.0 0.0 0.00 0.00 0.00 90 1013.3
20260510094901 15 248 0.0 0.0 0.00 0.00 0.00 90 1013.3
20260510094702 15 248 0.0 0.0 0.00 0.00 0.00 90 1013.3
20260510094502 15 248 0.0 0.0 0.00 0.00 0.00 90 1012.9
20260510094301 15 248 0.0 0.0 0.00 0.00 0.00 90 1013.3
20260510094201 15 248 0.0 0.0 0.00 0.00 0.00 90 1013.2
20260510094100 15 248 0.0 0.0 0.00 0.00 0.00 90 1013.3
20260510094002 15 246 0.0 0.0 0.00 0.00 0.00 90 1013.2
20260510093901 15 246 0.0 0.0 0.00 0.00 0.00 90 1013.3
20260510093800 15 246 0.0 0.0 0.00 0.00 0.00 90 1013.2
20260510093701 15 245 0.0 0.0 0.00 0.00 0.00 90 1013.2
20260510093600 15 246 0.0 0.0 0.00 0.00 0.00 90 1013.3
20260510093503 15 246 0.0 0.0 0.00 0.00 0.00 90 1013.2
20260510093302 15 246 0.0 0.0 0.00 0.00 0.00 90 1013.2
20260510093202 15 245 0.0 0.0 0.00 0.00 0.00 90 1013.3
20260510093101 15 246 0.0 0.0 0.00 0.00 0.00 90 1013.2
20260510093001 15 245 0.0 0.0 0.00 0.00 0.00 90 1012.9
20260510092900 15 246 0.0 0.0 0.00 0.00 0.00 90 1013.2
20260510092801 15 246 0.0 0.0 0.00 0.00 0.00 90 1013.2
20260510092700 15 246 0.0 0.0 0.00 0.00 0.00 90 1013.2
20260510092500 15 246 0.0 0.0 0.00 0.00 0.00 90 1013.2
20260510092202 15 246 0.0 0.0 0.00 0.00 0.00 90 1013.2
20260510092100 15 246 0.0 0.0 0.00 0.00 0.00 90 1013.2
20260510092002 15 246 0.0 0.0 0.00 0.00 0.00 90 1013.1
20260510091800 15 246 0.0 0.0 0.00 0.00 0.00 90 1013.2
20260510091700 15 245 0.0 0.0 0.00 0.00 0.00 90 1013.1
20260510091601 15 246 0.0 0.0 0.00 0.00 0.00 90 1013.1
20260510091501 15 245 0.0 0.0 0.00 0.00 0.00 90 1013.1
20260510091401 15 246 0.0 0.0 0.00 0.00 0.00 90 1013.2
20260510091300 15 246 0.0 0.0 0.00 0.00 0.00 90 1013.1
20260510091159 15 246 0.0 0.0 0.00 0.00 0.00 90 1013.0
20260510091100 15 245 0.0 0.0 0.00 0.00 0.00 90 1013.0
20260510091001 15 245 0.0 0.0 0.00 0.00 0.00 90 1013.1
20260510090901 15 245 0.0 0.0 0.00 0.00 0.00 90 1013.0
20260510090801 15 246 0.0 0.0 0.00 0.00 0.00 90 1013.1
20260510090601 15 245 0.0 0.0 0.00 0.00 0.00 90 1013.0
20260510090501 15 245 0.0 0.0 0.00 0.00 0.00 90 1013.1
20260510090200 15 246 0.0 0.0 0.00 0.00 0.00 90 1013.1
20260510090101 15 246 0.0 0.0 0.00 0.00 0.00 90 1012.9
20260510090001 15 246 0.0 0.0 0.00 0.00 0.00 90 1012.6
20260510085902 15 246 0.0 0.0 0.00 0.00 0.00 90 1012.9
20260510085701 15 246 0.0 0.0 0.00 0.00 0.00 90 1013.0
20260510085601 15 246 0.0 0.0 0.00 0.00 0.00 90 1012.8
20260510085501 15 245 0.0 0.0 0.00 0.00 0.00 90 1012.9
20260510085301 15 246 0.0 0.0 0.00 0.00 0.00 90 1012.9
20260510085200 15 245 0.0 0.0 0.00 0.00 0.00 90 1012.8
20260510085101 15 246 0.0 0.0 0.00 0.00 0.00 90 1012.7
20260510085000 15 246 0.0 0.0 0.00 0.00 0.00 90 1012.8
20260510084900 15 246 0.0 0.0 0.00 0.00 0.00 90 1012.8
20260510084801 15 246 0.0 0.0 0.00 0.00 0.00 90 1012.7
20260510084703 15 246 0.0 0.0 0.00 0.00 0.00 90 1012.7
20260510084600 15 246 0.0 0.0 0.00 0.00 0.00 90 1012.7
20260510084501 15 246 0.0 0.0 0.00 0.00 0.00 90 1012.4
20260510084401 15 246 0.0 0.0 0.00 0.00 0.00 90 1012.6
20260510084301 15 248 0.0 0.0 0.00 0.00 0.00 90 1012.6
20260510084201 15 248 0.0 0.0 0.00 0.00 0.00 90 1012.6
20260510084101 15 248 0.0 0.0 0.00 0.00 0.00 90 1012.7
20260510084001 15 248 0.0 0.0 0.00 0.00 0.00 90 1012.6
20260510083800 15 248 0.0 0.0 0.00 0.00 0.00 90 1012.6
20260510083702 15 248 0.0 0.0 0.00 0.00 0.00 90 1012.5
20260510083601 15 248 0.0 0.0 0.00 0.00 0.00 90 1012.7
20260510083501 15 248 0.0 0.0 0.00 0.00 0.00 90 1012.6
20260510083302 15 248 0.0 0.0 0.00 0.00 0.00 90 1012.6
20260510083201 15 248 0.0 0.0 0.00 0.00 0.00 90 1012.6
20260510083101 15 248 0.0 0.0 0.00 0.00 0.00 90 1012.6
20260510083002 15 248 0.0 0.0 0.00 0.00 0.00 90 1012.3
20260510082900 15 248 0.0 0.0 0.00 0.00 0.00 90 1012.6
20260510082800 15 248 0.0 0.0 0.00 0.00 0.00 90 1012.6
20260510082702 15 248 0.0 0.0 0.00 0.00 0.00 90 1012.6
20260510082400 15 248 0.0 0.0 0.00 0.00 0.00 90 1012.8
20260510082306 15 248 0.0 0.0 0.00 0.00 0.00 90 1012.7
20260510082201 15 248 0.0 0.0 0.00 0.00 0.00 90 1012.6
20260510082100 15 248 0.0 0.0 0.00 0.00 0.00 90 1012.6
20260510082000 15 248 0.0 0.0 0.00 0.00 0.00 90 1012.6
20260510081900 15 248 0.0 0.0 0.00 0.00 0.00 90 1012.7
20260510081802 15 248 0.0 0.0 0.00 0.00 0.00 90 1012.6
20260510081700 15 248 0.0 0.0 0.00 0.00 0.00 90 1012.6
20260510081600 15 248 0.0 0.0 0.00 0.00 0.00 90 1012.5
20260510081502 15 248 0.0 0.0 0.00 0.00 0.00 90 1012.3
20260510081401 15 248 0.0 0.0 0.00 0.00 0.00 90 1012.6
20260510081301 15 248 0.0 0.0 0.00 0.00 0.00 90 1012.5
20260510081202 15 248 0.0 0.0 0.00 0.00 0.00 90 1012.5
20260510080900 15 248 0.0 0.0 0.00 0.00 0.00 90 1012.5
20260510080800 15 248 0.0 0.0 0.00 0.00 0.00 90 1012.6
20260510080601 15 248 0.0 0.0 0.00 0.00 0.00 90 1012.6
20260510080501 15 248 0.0 0.0 0.00 0.00 0.00 90 1012.5
20260510080402 15 248 0.0 0.0 0.00 0.00 0.00 90 1012.6
20260510080301 15 248 0.0 0.0 0.00 0.00 0.00 90 1012.5
20260510080201 15 248 0.0 0.0 0.00 0.00 0.00 90 1012.6
20260510080003 15 248 0.0 0.0 0.00 0.00 0.00 90 1012.4
20260510075901 15 248 0.0 0.0 0.00 0.00 0.00 90 1012.6
20260510075801 15 248 0.0 0.0 0.00 0.00 0.00 90 1012.5
20260510075701 15 248 0.0 0.0 0.00 0.00 0.00 90 1012.7
20260510075601 15 246 0.0 0.0 0.00 0.00 0.00 90 1012.6
20260510075502 15 246 0.0 0.0 0.00 0.00 0.00 90 1012.6
20260510075400 15 246 0.0 0.0 0.00 0.00 0.00 90 1012.7
20260510075300 15 246 0.0 0.0 0.00 0.00 0.00 90 1012.7
20260510075200 15 246 0.0 0.0 0.00 0.00 0.00 90 1012.6
20260510075101 15 245 0.0 0.0 0.00 0.00 0.00 90 1012.7
20260510075001 15 246 0.0 0.0 0.00 0.00 0.00 90 1012.7
20260510074900 15 246 0.0 0.0 0.00 0.00 0.00 90 1012.6
20260510074801 15 246 0.0 0.0 0.00 0.00 0.00 90 1012.7
20260510074701 15 246 0.0 0.0 0.00 0.00 0.00 90 1012.7
20260510074602 15 246 0.0 0.0 0.00 0.00 0.00 90 1012.5
20260510074501 15 245 0.0 0.0 0.00 0.00 0.00 90 1012.7
20260510074302 15 246 0.0 0.0 0.00 0.00 0.00 90 1012.8
20260510074200 15 246 0.0 0.0 0.00 0.00 0.00 90 1012.7
20260510074101 15 246 0.0 0.0 0.00 0.00 0.00 90 1012.6
20260510073901 15 245 0.0 0.0 0.00 0.00 0.00 90 1012.6
20260510073801 15 246 0.0 0.0 0.00 0.00 0.00 90 1012.5
20260510073703 15 246 0.0 0.0 0.00 0.00 0.00 90 1012.5
20260510073601 15 246 0.0 0.0 0.00 0.00 0.00 90 1012.4
20260510073500 15 246 0.0 0.0 0.00 0.00 0.00 90 1012.4
20260510073301 15 246 0.0 0.0 0.00 0.00 0.00 90 1012.4
20260510073102 15 246 0.0 0.0 0.00 0.00 0.00 90 1012.3
20260510072900 15 246 0.0 0.0 0.00 0.00 0.00 90 1012.4
20260510072802 15 245 0.0 0.0 0.00 0.00 0.00 90 1012.3
20260510072701 15 246 0.0 0.0 0.00 0.00 0.00 90 1012.4
20260510072601 15 246 0.0 0.0 0.00 0.00 0.00 90 1012.4
20260510072502 15 246 0.0 0.0 0.00 0.00 0.00 90 1012.3
20260510072400 15 246 0.0 1.6 0.00 0.00 0.00 90 1012.4
20260510072300 15 245 0.0 1.6 0.00 0.00 0.00 90 1012.3
20260510072101 15 246 0.0 1.6 0.00 0.00 0.00 90 1012.3
20260510072000 15 246 0.0 1.6 0.00 0.00 0.00 90 1012.3
20260510071901 15 246 0.0 1.6 0.00 0.00 0.00 90 1012.3
20260510071701 15 246 0.0 1.6 0.00 0.00 0.00 90 1012.3
20260510071601 15 246 0.0 0.0 0.00 0.00 0.00 90 1011.9
20260510071502 15 246 0.0 0.0 0.00 0.00 0.00 90 1012.2
20260510071402 15 250 0.0 0.0 0.00 0.00 0.00 90 1012.2
20260510071201 15 252 0.0 0.0 0.00 0.00 0.00 90 1012.3
20260510071001 15 259 0.0 0.0 0.00 0.00 0.00 90 1012.3
20260510070900 15 259 0.0 0.0 0.00 0.00 0.00 90 1012.3
20260510070801 15 259 0.0 0.0 0.00 0.00 0.00 90 1012.3
20260510070602 15 259 0.0 0.0 0.00 0.00 0.00 90 1012.2
20260510070500 15 259 0.0 0.0 0.00 0.00 0.00 90 1012.2
20260510070401 15 259 0.0 0.0 0.00 0.00 0.00 90 1012.2
20260510070302 15 259 0.0 0.0 0.00 0.00 0.00 90 1012.3
20260510070201 15 259 0.0 0.0 0.00 0.00 0.00 90 1012.3
20260510070002 15 259 0.0 0.0 0.00 0.00 0.00 90 1011.9
20260510065901 15 259 0.0 0.0 0.00 0.00 0.00 90 1012.1
20260510065801 15 259 0.0 0.0 0.00 0.00 0.00 90 1012.1
20260510065702 16 259 0.0 0.0 0.00 0.00 0.00 90 1012.1
20260510065601 16 259 0.0 0.0 0.00 0.00 0.00 90 1012.1
20260510065500 16 259 0.0 0.0 0.00 0.00 0.00 90 1012.1
20260510065402 16 259 0.0 0.0 0.00 0.00 0.00 90 1012.1
20260510065305 16 259 0.0 0.0 0.00 0.00 0.00 90 1012.1
20260510065103 16 259 0.0 0.0 0.00 0.00 0.00 90 1012.2
20260510065002 16 259 0.0 0.0 0.00 0.00 0.00 90 1012.2
20260510064901 16 259 0.0 0.0 0.00 0.00 0.00 90 1012.3
20260510064800 16 259 0.0 0.0 0.00 0.00 0.00 90 1012.3
20260510064701 16 259 0.0 0.0 0.00 0.00 0.00 90 1012.3
20260510064602 16 259 0.0 0.0 0.00 0.00 0.00 90 1012.2
20260510064501 16 259 0.0 0.0 0.00 0.00 0.00 90 1012.1
20260510064400 16 259 0.0 0.0 0.00 0.00 0.00 90 1012.2
20260510064301 16 259 0.0 0.0 0.00 0.00 0.00 90 1012.3
20260510064102 16 259 0.0 0.0 0.00 0.00 0.00 90 1012.3
20260510064000 16 259 0.0 0.0 0.00 0.00 0.00 90 1012.3
20260510063900 16 259 0.0 0.0 0.00 0.00 0.00 90 1012.3
20260510063801 16 259 0.0 0.0 0.00 0.00 0.00 90 1012.3
20260510063700 16 259 0.0 0.0 0.00 0.00 0.00 90 1012.3
20260510063500 16 259 0.0 0.0 0.00 0.00 0.00 90 1012.3
20260510063400 16 259 0.0 0.0 0.00 0.00 0.00 90 1012.3
20260510063301 16 259 0.0 0.0 0.00 0.00 0.00 90 1012.3
20260510063202 16 259 0.0 0.0 0.00 0.00 0.00 90 1012.3
20260510063100 16 259 0.0 0.0 0.00 0.00 0.00 90 1012.3
20260510063000 16 259 0.0 0.0 0.00 0.00 0.00 90 1012.2
20260510062901 16 259 0.0 0.0 0.00 0.00 0.00 90 1012.2
20260510062801 16 259 0.0 0.0 0.00 0.00 0.00 90 1012.2
20260510062601 16 259 0.0 0.0 0.00 0.00 0.00 90 1012.2
20260510062501 16 259 0.0 0.0 0.00 0.00 0.00 90 1012.1
20260510062400 16 259 0.0 0.0 0.00 0.00 0.00 90 1012.1
20260510062302 16 259 0.0 0.0 0.00 0.00 0.00 90 1012.1
20260510062201 16 259 0.0 0.0 0.00 0.00 0.00 90 1012.1
20260510062101 16 259 0.0 0.0 0.00 0.00 0.00 90 1012.1
20260510062000 16 259 0.0 0.0 0.00 0.00 0.00 89 1012.1
20260510061901 16 259 0.0 0.0 0.00 0.00 0.00 89 1012.1
20260510061700 16 259 0.0 0.0 0.00 0.00 0.00 89 1012.1
20260510061602 16 259 0.0 0.0 0.00 0.00 0.00 89 1012.2
20260510061501 16 259 0.0 0.0 0.00 0.00 0.00 89 1011.9
20260510061401 16 259 0.0 0.0 0.00 0.00 0.00 89 1012.1
20260510061300 16 259 0.0 0.0 0.00 0.00 0.00 89 1012.2
20260510061202 16 259 0.0 0.0 0.00 0.00 0.00 89 1012.1
20260510061100 16 259 0.0 0.0 0.00 0.00 0.00 89 1012.2
20260510060901 16 259 0.0 0.0 0.00 0.00 0.00 89 1012.2
20260510060801 16 259 0.0 0.0 0.00 0.00 0.00 89 1012.3
20260510060701 16 259 0.0 0.0 0.00 0.00 0.00 89 1012.3
20260510060602 16 259 0.0 0.0 0.00 0.00 0.00 89 1012.3
20260510060501 16 259 0.0 0.0 0.00 0.00 0.00 89 1012.2
20260510060401 16 259 0.0 0.0 0.00 0.00 0.00 89 1012.3
20260510060301 16 259 0.0 0.0 0.00 0.00 0.00 89 1012.3
20260510060202 16 259 0.0 0.0 0.00 0.00 0.00 89 1012.4
20260510060100 16 259 0.0 0.0 0.00 0.00 0.00 89 1012.4
20260510060000 16 259 0.0 0.0 0.00 0.00 0.00 89 1012.4
20260510055801 16 259 0.0 0.0 0.00 0.00 0.00 89 1012.5
20260510055559 16 259 0.0 0.0 0.00 0.00 0.00 89 1012.4
20260510055500 16 259 0.0 0.0 0.00 0.00 0.00 89 1012.6
20260510055400 16 259 0.0 0.0 0.00 0.00 0.00 89 1012.4
20260510055300 16 258 0.0 0.0 0.00 0.00 0.00 89 1012.5
20260510055200 16 259 0.0 0.0 0.00 0.00 0.00 89 1012.5
20260510055059 16 259 0.0 0.0 0.00 0.00 0.00 89 1012.5
20260510055001 16 259 0.0 0.0 0.00 0.00 0.00 89 1012.4
20260510054900 16 259 0.0 0.0 0.00 0.00 0.00 89 1012.5
20260510054759 16 259 0.0 0.0 0.00 0.00 0.00 89 1012.6
20260510054659 16 259 0.0 0.0 0.00 0.00 0.00 89 1012.6
20260510054600 16 259 0.0 0.0 0.00 0.00 0.00 89 1012.2
20260510054500 16 259 0.0 0.0 0.00 0.00 0.00 89 1012.5
20260510054401 16 259 0.0 0.0 0.00 0.00 0.00 89 1012.5
20260510054300 16 259 0.0 0.0 0.00 0.00 0.00 89 1012.5
20260510054201 16 259 0.0 0.0 0.00 0.00 0.00 89 1012.5
20260510054000 16 259 0.0 0.0 0.00 0.00 0.00 89 1012.6
20260510053901 16 259 0.0 0.0 0.00 0.00 0.00 89 1012.5
20260510053800 16 259 0.0 0.0 0.00 0.00 0.00 89 1012.6
20260510053700 16 259 0.0 0.0 0.00 0.00 0.00 89 1012.6
20260510053600 16 258 0.0 0.0 0.00 0.00 0.00 89 1012.6
20260510053459 16 259 0.0 0.0 0.00 0.00 0.00 89 1012.6
20260510053401 16 259 0.0 0.0 0.00 0.00 0.00 89 1012.6
20260510053259 16 259 0.0 0.0 0.00 0.00 0.00 89 1012.7
20260510053159 16 258 0.0 0.0 0.00 0.00 0.00 89 1012.7
20260510053105 16 259 0.0 0.0 0.00 0.00 0.00 89 1012.4
20260510053100 16 259 0.0 0.0 0.00 0.00 0.00 89 1012.7
20260510052959 16 259 0.0 0.0 0.00 0.00 0.00 89 1012.6
20260510052859 16 259 0.0 0.0 0.00 0.00 0.00 89 1012.7
20260510052759 16 259 0.0 0.0 0.00 0.00 0.00 89 1012.7
20260510052700 16 259 0.0 0.0 0.00 0.00 0.00 89 1012.7
20260510052600 16 258 0.0 0.0 0.00 0.00 0.00 89 1012.6
20260510052459 16 259 0.0 0.0 0.00 0.00 0.00 89 1012.9
20260510052401 16 259 0.0 0.0 0.00 0.00 0.00 89 1012.6
20260510052259 16 259 0.0 0.0 0.00 0.00 0.00 89 1012.8
20260510052159 16 259 0.0 0.0 0.00 0.00 0.00 89 1012.7
20260510052059 16 259 0.0 0.0 0.00 0.00 0.00 89 1012.7
20260510051959 16 259 0.0 0.0 0.00 0.00 0.00 89 1012.7
20260510051859 16 258 0.0 0.0 0.00 0.00 0.00 89 1012.7
20260510051759 16 259 0.0 0.0 0.00 0.00 0.00 89 1012.7
20260510051659 16 259 0.0 0.0 0.00 0.00 0.00 89 1012.7
20260510051601 16 259 0.0 0.0 0.00 0.00 0.00 89 1012.7
20260510051500 16 257 0.0 0.0 0.00 0.00 0.00 89 1012.8
20260510051400 16 257 0.0 0.0 0.00 0.00 0.00 89 1012.7
20260510051259 16 257 0.0 0.0 0.00 0.00 0.00 89 1012.7
20260510051200 16 257 0.0 0.0 0.00 0.00 0.00 89 1012.7
20260510051059 16 257 0.0 0.0 0.00 0.00 0.00 89 1012.8
20260510051000 16 257 0.0 0.0 0.00 0.00 0.00 89 1012.8
20260510050900 16 257 0.0 0.0 0.00 0.00 0.00 89 1013.0
20260510050759 16 257 0.0 0.0 0.00 0.00 0.00 89 1012.7
20260510050659 16 257 0.0 0.0 0.00 0.00 0.00 89 1012.8
20260510050600 16 257 0.0 0.0 0.00 0.00 0.00 89 1013.0
20260510050500 16 257 0.0 0.0 0.00 0.00 0.00 89 1012.9
20260510050359 16 257 0.0 0.0 0.00 0.00 0.00 89 1012.9
20260510050300 16 257 0.0 0.0 0.00 0.00 0.00 89 1013.0
20260510050200 16 257 0.0 0.0 0.00 0.00 0.00 89 1013.0
20260510050059 16 257 0.0 0.0 0.00 0.00 0.00 89 1012.9
20260510050004 16 257 0.0 0.0 0.00 0.00 0.00 89 1012.6
20260510050002 16 257 0.0 0.0 0.00 0.00 0.00 89 1012.9
20260510045900 16 257 0.0 0.0 0.00 0.00 0.00 89 1012.9
20260510045800 16 257 0.0 0.0 0.00 0.00 0.00 89 1012.8
20260510045602 16 257 0.0 0.0 0.00 0.00 0.00 89 1012.8
20260510045500 16 257 0.0 0.0 0.00 0.00 0.00 89 1012.8
20260510045400 16 257 0.0 0.0 0.00 0.00 0.00 89 1012.8
20260510045301 16 257 0.0 0.0 0.00 0.00 0.00 89 1012.8
20260510045200 16 257 0.0 0.0 0.00 0.00 0.00 89 1012.9
20260510045101 16 257 0.0 0.0 0.00 0.00 0.00 89 1012.8
20260510045001 16 257 0.0 0.0 0.00 0.00 0.00 89 1012.8
20260510044901 16 257 0.0 0.0 0.00 0.00 0.00 89 1012.9
20260510044801 16 257 0.0 0.0 0.00 0.00 0.00 89 1013.0
20260510044602 16 257 0.0 0.0 0.00 0.00 0.00 89 1013.1
20260510044500 16 257 0.0 0.0 0.00 0.00 0.00 89 1013.1
20260510044403 16 257 0.0 0.0 0.00 0.00 0.00 89 1013.1
20260510044300 16 257 0.0 0.0 0.00 0.00 0.00 89 1013.1
20260510044201 16 259 0.0 0.0 0.00 0.00 0.00 89 1012.9
20260510043900 16 259 0.0 0.0 0.00 0.00 0.00 89 1013.0
20260510043801 16 259 0.0 0.0 0.00 0.00 0.00 89 1013.0
20260510043700 16 259 0.0 0.0 0.00 0.00 0.00 89 1012.9
20260510043300 16 258 0.0 0.0 0.00 0.00 0.00 89 1012.9
20260510043203 16 259 0.0 0.0 0.00 0.00 0.00 89 1012.9
20260510043106 16 259 0.0 0.0 0.00 0.00 0.00 89 1012.6
20260510043101 16 258 0.0 0.0 0.00 0.00 0.00 89 1012.9
20260510043000 16 259 0.0 0.0 0.00 0.00 0.00 89 1012.8
20260510042900 16 259 0.0 0.0 0.00 0.00 0.00 89 1012.8
20260510042800 16 259 0.0 0.0 0.00 0.00 0.00 89 1012.8
20260510042701 16 259 0.0 0.0 0.00 0.00 0.00 89 1012.9
20260510042600 16 259 0.0 0.0 0.00 0.00 0.00 89 1012.9
20260510042501 16 259 0.0 0.0 0.00 0.00 0.00 89 1012.8
20260510042300 16 259 0.0 0.0 0.00 0.00 0.00 89 1012.9
20260510042200 16 259 0.0 0.0 0.00 0.00 0.00 89 1012.8
20260510042001 16 259 0.0 0.0 0.00 0.00 0.00 89 1012.7
20260510041901 16 259 0.0 0.0 0.00 0.00 0.00 89 1012.6
20260510041800 16 259 0.0 0.0 0.00 0.00 0.00 89 1012.7
20260510041701 16 259 0.0 0.0 0.00 0.00 0.00 89 1012.8
20260510041601 16 259 0.0 0.0 0.00 0.00 0.00 89 1012.7
20260510041502 16 259 0.0 0.0 0.00 0.00 0.00 89 1012.5
20260510041300 16 258 0.0 0.0 0.00 0.00 0.00 89 1012.8
20260510041201 16 259 0.0 0.0 0.00 0.00 0.00 89 1012.8
20260510041101 16 259 0.0 0.0 0.00 0.00 0.00 89 1012.8
20260510041002 16 259 0.0 0.0 0.00 0.00 0.00 89 1012.8
20260510040701 16 259 0.0 0.0 0.00 0.00 0.00 88 1012.8
20260510040601 16 259 0.0 0.0 0.00 0.00 0.00 88 1013.0
20260510040502 16 259 0.0 0.0 0.00 0.00 0.00 88 1013.0
20260510040401 16 259 0.0 0.0 0.00 0.00 0.00 88 1012.8
20260510040302 16 259 0.0 0.0 0.00 0.00 0.00 88 1012.8
20260510040205 16 259 0.0 0.0 0.00 0.00 0.00 88 1012.8
20260510040009 16 259 0.0 0.0 0.00 0.00 0.00 88 1012.6
20260510035804 16 259 0.0 0.0 0.00 0.00 0.00 88 1012.8
20260510035703 16 259 0.0 0.0 0.00 0.00 0.00 88 1012.9
20260510035603 16 259 0.0 0.0 0.00 0.00 0.00 88 1012.7
20260510035404 16 259 0.0 0.0 0.00 0.00 0.00 88 1012.8
20260510035306 16 259 0.0 0.0 0.00 0.00 0.00 88 1012.8
20260510035003 16 259 0.0 0.0 0.00 0.00 0.00 88 1012.8
20260510034803 16 259 0.0 0.0 0.00 0.00 0.00 88 1012.9
20260510034703 16 259 0.0 0.0 0.00 0.00 0.00 88 1012.8
20260510034603 16 259 0.0 0.0 0.00 0.00 0.00 88 1012.9
20260510034503 16 259 0.0 0.0 0.00 0.00 0.00 88 1012.8
20260510034403 16 259 0.0 0.0 0.00 0.00 0.00 88 1012.8
20260510034303 16 259 0.0 0.0 0.00 0.00 0.00 88 1012.9
20260510034204 16 259 0.0 0.0 0.00 0.00 0.00 88 1012.9
20260510034104 16 259 0.0 0.0 0.00 0.00 0.00 88 1012.8
20260510033905 16 259 0.0 0.0 0.00 0.00 0.00 88 1012.8
20260510033604 16 259 0.0 0.0 0.00 0.00 0.00 88 1012.8
20260510033504 16 257 0.0 0.0 0.00 0.00 0.00 88 1012.7
20260510033403 16 257 0.0 0.0 0.00 0.00 0.00 88 1012.8
20260510033204 16 257 0.0 0.0 0.00 0.00 0.00 88 1012.7
20260510033103 16 257 0.0 0.0 0.00 0.00 0.00 88 1012.7
20260510033003 16 257 0.0 0.0 0.00 0.00 0.00 88 1012.8
20260510032804 16 257 0.0 0.0 0.00 0.00 0.00 88 1012.8
20260510032704 16 257 0.0 0.0 0.00 0.00 0.00 88 1012.7
20260510032603 16 257 0.0 0.0 0.00 0.00 0.00 88 1012.7
20260510032504 16 257 0.0 0.0 0.00 0.00 0.00 88 1012.9
20260510032306 16 257 0.0 0.0 0.00 0.00 0.00 88 1012.7
20260510032203 16 257 0.0 0.0 0.00 0.00 0.00 88 1012.7
20260510032106 16 257 0.0 0.0 0.00 0.00 0.00 88 1012.7
20260510032006 16 257 0.0 0.0 0.00 0.00 0.00 88 1012.7
20260510031904 16 257 0.0 0.0 0.00 0.00 0.00 88 1012.7
20260510031803 16 257 0.0 0.0 0.00 0.00 0.00 88 1012.7
20260510031705 16 257 0.0 0.0 0.00 0.00 0.00 88 1012.6
20260510031603 17 257 0.0 0.0 0.00 0.00 0.00 88 1012.7
20260510031510 16 257 0.0 0.0 0.00 0.00 0.00 88 1012.5
20260510031503 16 257 0.0 0.0 0.00 0.00 0.00 88 1012.7
20260510031407 17 257 0.0 0.0 0.00 0.00 0.00 88 1012.8
20260510031303 17 257 0.0 0.0 0.00 0.00 0.00 88 1012.7
20260510031205 17 257 0.0 0.0 0.00 0.00 0.00 88 1012.7
20260510031103 17 257 0.0 0.0 0.00 0.00 0.00 88 1012.7
20260510031003 17 257 0.0 0.0 0.00 0.00 0.00 88 1012.8
20260510030903 17 257 0.0 0.0 0.00 0.00 0.00 88 1012.8
20260510030804 17 257 0.0 0.0 0.00 0.00 0.00 88 1012.9
20260510030703 17 257 0.0 0.0 0.00 0.00 0.00 88 1012.8
20260510030603 17 257 0.0 0.0 0.00 0.00 0.00 88 1012.8
20260510030503 17 257 0.0 0.0 0.00 0.00 0.00 88 1012.7
20260510030404 17 257 0.0 0.0 0.00 0.00 0.00 87 1012.8
20260510030304 17 257 0.0 0.0 0.00 0.00 0.00 87 1012.8
20260510030203 17 257 0.0 0.0 0.00 0.00 0.00 87 1012.7
20260510030005 17 257 0.0 0.0 0.00 0.00 0.00 87 1012.7
20260510025903 17 257 0.0 0.0 0.00 0.00 0.00 87 1012.6
20260510025803 17 257 0.0 0.0 0.00 0.00 0.00 87 1012.7
20260510025703 17 257 0.0 0.0 0.00 0.00 0.00 87 1012.7
20260510025603 17 257 0.0 0.0 0.00 0.00 0.00 87 1012.7
20260510025504 17 257 0.0 0.0 0.00 0.00 0.00 87 1012.7
20260510025404 17 257 0.0 0.0 0.00 0.00 0.00 87 1012.7
20260510025306 17 257 0.0 0.0 0.00 0.00 0.00 87 1012.6
20260510025204 17 257 0.0 0.0 0.00 0.00 0.00 87 1012.7
20260510025104 17 257 0.0 0.0 0.00 0.00 0.00 87 1012.6
20260510025003 17 257 0.0 0.0 0.00 0.00 0.00 87 1012.6
20260510024804 17 257 0.0 0.0 0.00 0.00 0.00 87 1012.6
20260510024604 17 257 0.0 0.0 0.00 0.00 0.00 87 1012.5
20260510024505 17 257 0.0 0.0 0.00 0.00 0.00 87 1012.4
20260510024404 17 259 0.0 0.0 0.00 0.00 0.00 87 1012.6
20260510024104 17 259 0.0 0.0 0.00 0.00 0.00 86 1012.6
20260510024003 17 259 0.0 0.0 0.00 0.00 0.00 86 1012.7
20260510023804 17 259 0.0 0.0 0.00 0.00 0.00 86 1012.6
20260510023704 17 259 0.0 0.0 0.00 0.00 0.00 86 1012.6
20260510023605 17 259 0.0 0.0 0.00 0.00 0.00 86 1012.6
20260510023503 17 259 0.0 0.0 0.00 0.00 0.00 86 1012.7
20260510023304 17 259 0.0 0.0 0.00 0.00 0.00 86 1012.6
20260510023203 17 259 0.0 0.0 0.00 0.00 0.00 86 1012.6
20260510023105 17 259 0.0 0.0 0.00 0.00 0.00 86 1012.6
20260510023006 17 259 0.0 0.0 0.00 0.00 0.00 86 1012.4
20260510023003 17 259 0.0 0.0 0.00 0.00 0.00 86 1012.6
20260510022904 17 259 0.0 0.0 0.00 0.00 0.00 86 1012.7
20260510022803 17 259 0.0 1.6 0.00 0.00 0.00 86 1012.7
20260510022705 17 259 0.0 1.6 0.00 0.00 0.00 86 1012.7
20260510022604 17 259 0.0 1.6 0.00 0.00 0.00 86 1012.6
20260510022503 17 259 0.0 1.6 0.00 0.00 0.00 86 1012.7
20260510022404 17 259 0.0 1.6 0.00 0.00 0.00 86 1012.6
20260510022306 17 259 0.0 1.6 0.00 0.00 0.00 86 1012.6
20260510022204 17 259 0.0 1.6 0.00 0.00 0.00 86 1012.5
20260510022103 17 259 0.0 1.6 0.00 0.00 0.00 86 1012.6
20260510022005 17 259 0.0 1.6 0.00 0.00 0.00 86 1012.6
20260510021803 17 259 0.0 0.0 0.00 0.00 0.00 86 1012.5
20260510021703 17 257 0.0 0.0 0.00 0.00 0.00 86 1012.5
20260510021604 17 257 0.0 0.0 0.00 0.00 0.00 86 1012.5
20260510021517 17 257 0.0 0.0 0.00 0.00 0.00 85 1012.2
20260510021504 17 257 0.0 0.0 0.00 0.00 0.00 85 1012.5
20260510021403 17 257 0.0 0.0 0.00 0.00 0.00 85 1012.4
20260510021304 17 257 0.0 0.0 0.00 0.00 0.00 85 1012.4
20260510021203 17 257 0.0 0.0 0.00 0.00 0.00 85 1012.5
20260510021105 17 257 0.0 0.0 0.00 0.00 0.00 85 1012.5
20260510020903 17 257 0.0 0.0 0.00 0.00 0.00 85 1012.5
20260510020803 17 257 0.0 0.0 0.00 0.00 0.00 85 1012.5
20260510020605 17 257 0.0 0.0 0.00 0.00 0.00 85 1012.5
20260510020503 17 257 0.0 0.0 0.00 0.00 0.00 85 1012.6
20260510020403 17 257 0.0 0.0 0.00 0.00 0.00 85 1012.5
20260510020203 17 257 0.0 0.0 0.00 0.00 0.00 85 1012.5
20260510020104 17 257 0.0 0.0 0.00 0.00 0.00 85 1012.5
20260510020003 17 257 0.0 0.0 0.00 0.00 0.00 85 1012.6
20260510015902 17 257 0.0 0.0 0.00 0.00 0.00 85 1012.4
20260510015802 17 257 0.0 0.0 0.00 0.00 0.00 85 1012.5
20260510015702 18 257 0.0 0.0 0.00 0.00 0.00 85 1012.4
20260510015603 18 257 0.0 0.0 0.00 0.00 0.00 85 1012.4
20260510015503 18 257 0.0 0.0 0.00 0.00 0.00 85 1012.3
20260510015403 18 257 0.0 0.0 0.00 0.00 0.00 85 1012.4
20260510015306 18 257 0.0 0.0 0.00 0.00 0.00 85 1012.3
20260510015202 18 257 0.0 0.0 0.00 0.00 0.00 85 1012.2
20260510015103 18 257 0.0 0.0 0.00 0.00 0.00 85 1012.3
20260510014902 18 257 0.0 0.0 0.00 0.00 0.00 85 1012.2
20260510014803 18 257 0.0 0.0 0.00 0.00 0.00 85 1012.2
20260510014702 18 257 0.0 0.0 0.00 0.00 0.00 85 1012.1
20260510014603 18 257 0.0 0.0 0.00 0.00 0.00 85 1012.1
20260510014506 18 257 0.0 0.0 0.00 0.00 0.00 85 1011.9
20260510014502 18 257 0.0 0.0 0.00 0.00 0.00 85 1012.1
20260510014402 18 257 0.0 0.0 0.00 0.00 0.00 85 1012.1
20260510014303 18 257 0.0 0.0 0.00 0.00 0.00 85 1012.2
20260510014202 18 257 0.0 0.0 0.00 0.00 0.00 85 1011.9
20260510014102 18 257 0.0 0.0 0.00 0.00 0.00 85 1012.1
20260510014003 18 257 0.0 0.0 0.00 0.00 0.00 85 1012.1
20260510013803 18 257 0.0 0.0 0.00 0.00 0.00 85 1012.0
20260510013703 18 257 0.0 0.0 0.00 0.00 0.00 84 1012.0
20260510013503 18 257 0.0 0.0 0.00 0.00 0.00 84 1012.0
20260510013404 18 258 0.0 0.0 0.00 0.00 0.00 84 1011.9
20260510013303 18 257 0.0 0.0 0.00 0.00 0.00 84 1011.9
20260510013203 18 257 0.0 0.0 0.00 0.00 0.00 84 1011.8
20260510013103 18 257 0.0 0.0 0.00 0.00 0.00 84 1011.8
20260510013002 18 257 0.0 0.0 0.00 0.00 0.00 84 1011.8
20260510012902 18 257 0.0 0.0 0.00 0.00 0.00 84 1011.7
20260510012802 18 257 0.0 0.0 0.00 0.00 0.00 84 1011.8
20260510012702 18 257 0.0 0.0 0.00 0.00 0.00 84 1011.6
20260510012602 18 257 0.0 0.0 0.00 0.00 0.00 84 1011.7
20260510012402 18 257 0.0 0.0 0.00 0.00 0.00 84 1011.7
20260510012306 18 257 0.0 0.0 0.00 0.00 0.00 84 1011.7
20260510012202 18 257 0.0 0.0 0.00 0.00 0.00 84 1011.7
20260510012103 18 257 0.0 0.0 0.00 0.00 0.00 84 1011.6
20260510011902 18 259 0.0 0.0 0.00 0.00 0.00 84 1011.6
20260510011803 18 259 0.0 0.0 0.00 0.00 0.00 84 1011.6
20260510011703 18 259 0.0 0.0 0.00 0.00 0.00 84 1011.6
20260510011503 18 257 0.0 0.0 0.00 0.00 0.00 84 1011.6
20260510011402 18 257 0.0 0.0 0.00 0.00 0.00 83 1011.5
20260510011302 18 257 0.0 0.0 0.00 0.00 0.00 83 1011.5
20260510011202 18 257 0.0 0.0 0.00 0.00 0.00 83 1011.5
20260510011103 18 257 0.0 0.0 0.00 0.00 0.00 83 1011.5
20260510011002 18 257 0.0 0.0 0.00 0.00 0.00 83 1011.5
20260510010904 18 257 0.0 0.0 0.00 0.00 0.00 82 1011.6
20260510010804 18 257 0.0 0.0 0.00 0.00 0.00 82 1011.6
20260510010603 18 257 0.0 0.0 0.00 0.00 0.00 82 1011.5
20260510010502 18 257 0.0 0.0 0.00 0.00 0.00 82 1011.4
20260510010404 18 257 0.0 0.0 0.00 0.00 0.00 82 1011.5
20260510010303 18 257 0.0 0.0 0.00 0.00 0.00 82 1011.4
20260510010202 18 257 0.0 0.0 0.00 0.00 0.00 82 1011.4
20260510010003 18 257 0.0 0.0 0.00 0.00 0.00 82 1011.0
20260510005903 18 258 0.0 0.0 0.00 0.00 0.00 82 1011.5
20260510005802 18 257 0.0 0.0 0.00 0.00 0.00 82 1011.4
20260510005704 18 257 0.0 0.0 0.00 0.00 0.00 82 1011.4
20260510005603 18 257 0.0 0.0 0.00 0.00 0.00 82 1011.3
20260510005502 18 257 0.0 0.0 0.00 0.00 0.00 82 1011.4
20260510005403 18 257 0.0 0.0 0.00 0.00 0.00 81 1011.3
20260510005202 19 257 0.0 0.0 0.00 0.00 0.00 82 1011.3
20260510005102 19 257 0.0 0.0 0.00 0.00 0.00 82 1011.4
20260510005003 19 257 0.0 0.0 0.00 0.00 0.00 81 1011.4
20260510004903 19 257 0.0 0.0 0.00 0.00 0.00 81 1011.3
20260510004803 19 257 0.0 0.0 0.00 0.00 0.00 81 1011.4
20260510004703 19 257 0.0 0.0 0.00 0.00 0.00 81 1011.3
20260510004601 19 257 0.0 0.0 0.00 0.00 0.00 81 1011.3
20260510004502 19 257 0.0 0.0 0.00 0.00 0.00 80 1011.4
20260510004403 19 257 0.0 0.0 0.00 0.00 0.00 80 1011.3
20260510004302 19 257 0.0 0.0 0.00 0.00 0.00 80 1011.3
20260510004202 19 257 0.0 0.0 0.00 0.00 0.00 80 1011.4
20260510004102 19 257 0.0 0.0 0.00 0.00 0.00 80 1011.2
20260510004005 19 257 0.0 0.0 0.00 0.00 0.00 80 1011.3
20260510003903 19 257 0.0 0.0 0.00 0.00 0.00 80 1011.3
20260510003802 19 257 0.0 0.0 0.00 0.00 0.00 80 1011.3
20260510003703 19 257 0.0 0.0 0.00 0.00 0.00 80 1011.3
20260510003602 19 257 0.0 0.0 0.00 0.00 0.00 80 1011.4
20260510003502 19 257 0.0 0.0 0.00 0.00 0.00 79 1011.4
20260510003403 19 257 0.0 0.0 0.00 0.00 0.00 79 1011.4
20260510003202 20 257 0.0 0.0 0.00 0.00 0.00 79 1011.3
20260510003103 20 257 0.0 0.0 0.00 0.00 0.00 79 1011.4
20260510003003 20 257 0.0 0.0 0.00 0.00 0.00 79 1011.1
20260510002802 20 257 0.0 0.0 0.00 0.00 0.00 79 1011.3
20260510002703 20 257 0.0 0.0 0.00 0.00 0.00 79 1011.3
20260510002603 20 257 0.0 0.0 0.00 0.00 0.00 79 1011.4
20260510002504 20 257 0.0 0.0 0.00 0.00 0.00 79 1011.4
20260510002404 20 257 0.0 0.0 0.00 0.00 0.00 79 1011.4
20260510002306 20 257 0.0 0.0 0.00 0.00 0.00 79 1011.3
20260510002102 20 257 0.0 0.0 0.00 0.00 0.00 78 1011.3
20260510002002 20 257 0.0 0.0 0.00 0.00 0.00 78 1011.3
20260510001903 20 257 0.0 0.0 0.00 0.00 0.00 78 1011.2
20260510001802 20 257 0.0 0.0 0.00 0.00 0.00 78 1011.3
20260510001702 20 257 0.0 0.0 0.00 0.00 0.00 78 1011.3
20260510001603 20 257 0.0 0.0 0.00 0.00 0.00 78 1011.3
20260510001503 20 257 0.0 0.0 0.00 0.00 0.00 78 1011.0
20260510001413 20 257 0.0 0.0 0.00 0.00 0.00 78 1011.2
20260510001302 20 257 0.0 0.0 0.00 0.00 0.00 78 1011.4
20260510001103 20 257 0.0 0.0 0.00 0.00 0.00 78 1011.3
20260510001004 20 257 0.0 0.0 0.00 0.00 0.00 78 1011.4
20260510000903 20 257 0.0 0.0 0.00 0.00 0.00 78 1011.2
20260510000802 20 257 0.0 0.0 0.00 0.00 0.00 78 1011.4
20260510000703 20 257 0.0 0.0 0.00 0.00 0.00 77 1011.3
20260510000602 20 257 0.0 0.0 0.00 0.00 0.00 77 1011.3
20260510000503 20 257 0.0 0.0 0.00 0.00 0.00 76 1011.2
20260510000403 20 257 0.0 0.0 0.00 0.00 0.00 76 1011.2
20260510000306 20 257 0.0 0.0 0.00 0.00 0.00 76 1011.1
20260510000204 20 257 0.0 0.0 0.00 0.00 0.00 76 1011.1
20260510000103 20 257 0.0 0.0 0.00 0.00 0.00 76 1011.1
20260510000007 20 257 0.0 0.0 0.00 0.00 0.00 76 1010.8
20260509235912 20 257 0.0 0.0 0.00 0.00 0.00 76 1011.1
20260509235813 20 257 0.0 0.0 0.00 0.00 0.00 76 1011.1
20260509235502 21 257 0.0 0.0 0.00 0.00 0.00 76 1011.1
20260509235407 21 257 0.0 0.0 0.00 0.00 0.00 76 1011.1
20260509235307 21 257 0.0 0.0 0.00 0.00 0.00 76 1011.2
20260509235204 21 257 0.0 0.0 0.00 0.00 0.00 75 1011.1
20260509235104 21 257 0.0 0.0 0.00 0.00 0.00 75 1011.0
20260509234905 21 257 0.0 0.0 0.00 0.00 0.00 75 1011.1
20260509234604 21 257 0.0 0.0 0.00 0.00 0.00 75 1011.0
20260509234504 21 257 0.0 0.0 0.00 0.00 0.00 75 1010.8
20260509234404 21 257 0.0 0.0 0.00 0.00 0.00 75 1010.8
20260509234203 21 257 0.0 0.0 0.00 0.00 0.00 75 1010.7
20260509234103 21 257 0.0 0.0 0.00 0.00 0.00 75 1010.6
20260509233903 21 257 0.0 0.0 0.00 0.00 0.00 74 1010.7
20260509233803 21 257 0.0 0.0 0.00 0.00 0.00 74 1010.6
20260509233706 21 257 0.0 0.0 0.00 0.00 0.00 74 1010.6
20260509233603 21 257 0.0 0.0 0.00 0.00 0.00 75 1010.7
20260509233504 21 257 0.0 0.0 0.00 0.00 0.00 74 1010.6
20260509233405 21 257 0.0 0.0 0.00 0.00 0.00 74 1010.6
20260509233304 21 257 0.0 0.0 0.00 0.00 0.00 74 1010.5
20260509233203 21 257 0.0 0.0 0.00 0.00 0.00 74 1010.7
20260509233104 21 257 0.0 0.0 0.00 0.00 0.00 74 1010.6
20260509233004 21 257 0.0 0.0 0.00 0.00 0.00 74 1010.4
20260509232904 21 257 0.0 0.0 0.00 0.00 0.00 74 1010.7
20260509232805 21 257 0.0 1.6 0.00 0.00 0.00 73 1010.7
20260509232603 21 257 0.0 1.6 0.00 0.00 0.00 73 1010.7
20260509232504 21 257 0.0 1.6 0.00 0.00 0.00 73 1010.7
20260509232403 21 257 0.0 1.6 0.00 0.00 0.00 73 1010.6
20260509232312 21 258 0.0 1.6 0.00 0.00 0.00 73 1010.6
20260509230905 22 250 0.0 1.6 0.00 0.00 0.00 71 1010.4
20260509230803 22 248 0.0 1.6 0.00 0.00 0.00 71 1010.4
20260509230703 22 243 0.0 3.2 0.00 0.00 0.00 71 1010.5
20260509230604 22 246 0.0 3.2 0.00 0.00 0.00 71 1010.4
20260509230504 22 246 0.0 4.8 0.00 0.00 0.00 71 1010.5
20260509230430 22 246 0.0 4.8 0.00 0.00 0.00 71 1010.5
20260509230314 22 246 0.0 4.8 0.00 0.00 0.00 71 1010.4
20260509230205 22 246 0.0 4.8 0.00 0.00 0.00 71 1010.4
20260509230104 22 246 0.0 4.8 0.00 0.00 0.00 70 1010.4
20260509230007 22 246 0.0 4.8 0.00 0.00 0.00 70 1010.2
20260509225804 22 281 0.0 4.8 0.00 0.00 0.00 70 1010.4
20260509225703 22 243 0.0 1.6 0.00 0.00 0.00 71 1010.4
20260509225603 22 240 0.0 1.6 0.00 0.00 0.00 71 1010.4
20260509225502 22 247 0.0 1.6 0.00 0.00 0.00 71 1010.4
20260509225305 22 246 0.0 3.2 0.00 0.00 0.00 70 1010.2
20260509225203 22 247 0.0 3.2 0.00 0.00 0.00 70 1010.3
20260509225102 22 256 0.0 3.2 0.00 0.00 0.00 70 1010.4
20260509225002 22 263 1.6 3.2 0.00 0.00 0.00 70 1010.3
20260509224902 22 260 1.6 3.2 0.00 0.00 0.00 70 1010.4
20260509224602 22 237 0.0 3.2 0.00 0.00 0.00 70 1010.2
20260509224504 22 259 0.0 3.2 0.00 0.00 0.00 70 1010.1
20260509224403 22 259 0.0 3.2 0.00 0.00 0.00 70 1010.2
20260509224202 22 286 0.0 3.2 0.00 0.00 0.00 70 1010.2
20260509224102 22 282 0.0 3.2 0.00 0.00 0.00 69 1010.2
20260509224002 22 246 0.0 3.2 0.00 0.00 0.00 69 1010.3
20260509223904 22 262 0.0 3.2 0.00 0.00 0.00 69 1010.3
20260509223603 22 255 0.0 1.6 0.00 0.00 0.00 68 1010.3
20260509223502 22 330 0.0 3.2 0.00 0.00 0.00 68 1010.2
20260509223402 23 347 0.0 3.2 0.00 0.00 0.00 69 1010.2
20260509223301 23 247 0.0 3.2 0.00 0.00 0.00 69 1010.2
20260509223202 23 264 0.0 3.2 0.00 0.00 0.00 69 1010.3
20260509223102 23 264 0.0 3.2 0.00 0.00 0.00 69 1010.3
20260509223003 23 255 0.0 3.2 0.00 0.00 0.00 68 1010.2
20260509222902 23 257 1.6 3.2 0.00 0.00 0.00 68 1010.5
20260509222704 23 238 1.6 3.2 0.00 0.00 0.00 68 1010.5
20260509222602 23 183 1.6 4.8 0.00 0.00 0.00 69 1010.6
20260509222502 23 152 1.6 4.8 0.00 0.00 0.00 68 1010.5
20260509222204 23 256 0.0 4.8 0.00 0.00 0.00 67 1010.4
20260509222103 23 245 0.0 4.8 0.00 0.00 0.00 67 1010.4
20260509222002 23 255 0.0 4.8 0.00 0.00 0.00 66 1010.5
20260509221902 23 243 0.0 4.8 0.00 0.00 0.00 66 1010.4
20260509221604 23 148 0.0 4.8 0.00 0.00 0.00 68 1010.5
20260509221502 23 148 0.0 4.8 0.00 0.00 0.00 68 1010.2
20260509221402 23 146 1.6 4.8 0.00 0.00 0.00 69 1010.3
20260509221102 23 253 1.6 6.4 0.00 0.00 0.00 69 1010.3
20260509221003 23 250 1.6 6.4 0.00 0.00 0.00 67 1010.3
20260509220803 23 290 1.6 6.4 0.00 0.00 0.00 68 1010.4
20260509220704 23 265 1.6 6.4 0.00 0.00 0.00 67 1010.2
20260509220603 23 282 1.6 6.4 0.00 0.00 0.00 66 1010.3
20260509220502 23 242 1.6 6.4 0.00 0.00 0.00 66 1010.3
20260509220402 23 246 1.6 8.0 0.00 0.00 0.00 67 1010.4
20260509220202 23 154 1.6 9.7 0.00 0.00 0.00 67 1010.3
20260509220008 23 200 0.0 9.7 0.00 0.00 0.00 68 1010.1
20260509220005 23 200 1.6 9.7 0.00 0.00 0.00 68 1010.3
20260509215804 23 253 1.6 9.7 0.00 0.00 0.00 68 1010.3
20260509215704 23 250 1.6 9.7 0.00 0.00 0.00 67 1010.3
20260509215604 23 252 1.6 9.7 0.00 0.00 0.00 67 1010.3
20260509215505 23 249 1.6 9.7 0.00 0.00 0.00 67 1010.4
20260509215404 23 152 1.6 8.0 0.00 0.00 0.00 67 1010.3
20260509215306 23 270 1.6 8.0 0.00 0.00 0.00 67 1010.4
20260509215104 23 239 1.6 8.0 0.00 0.00 0.00 67 1010.4
20260509215005 23 270 1.6 8.0 0.00 0.00 0.00 67 1010.4
20260509214903 23 233 1.6 4.8 0.00 0.00 0.00 68 1010.4
20260509214805 23 253 1.6 4.8 0.00 0.00 0.00 68 1010.4
20260509214703 23 274 1.6 4.8 0.00 0.00 0.00 68 1010.4
20260509214602 23 274 1.6 4.8 0.00 0.00 0.00 68 1010.3
20260509214504 23 274 0.0 4.8 0.00 0.00 0.00 68 1010.1
20260509214404 23 257 1.6 4.8 0.00 0.00 0.00 67 1010.3
20260509214303 23 253 0.0 4.8 0.00 0.00 0.00 68 1010.3
20260509214203 23 288 0.0 4.8 0.00 0.00 0.00 68 1010.3
20260509214004 23 233 0.0 6.4 0.00 0.00 0.00 69 1010.4
20260509213904 22 237 0.0 1.6 0.00 0.00 0.00 69 1010.3
20260509213803 22 235 1.6 4.8 0.00 0.00 0.00 69 1010.4
20260509213703 22 235 1.6 4.8 0.00 0.00 0.00 69 1010.3
20260509213603 22 235 1.6 6.4 0.00 0.00 0.00 69 1010.3
20260509213402 22 249 1.6 6.4 0.00 0.00 0.00 69 1010.5
20260509213303 22 248 1.6 8.0 0.00 0.00 0.00 68 1010.5
20260509213103 22 248 3.2 8.0 0.00 0.00 0.00 68 1010.4
20260509213008 23 257 3.2 8.0 0.00 0.00 0.00 67 1010.2
20260509213004 23 257 3.2 8.0 0.00 0.00 0.00 67 1010.4
20260509212705 23 231 1.6 8.0 0.00 0.00 0.00 67 1010.3
20260509212603 23 256 1.6 8.0 0.00 0.00 0.00 66 1010.2
20260509212505 23 248 1.6 9.7 0.00 0.00 0.00 66 1010.2
20260509212403 23 246 1.6 8.0 0.00 0.00 0.00 67 1010.2
20260509212305 23 251 1.6 4.8 0.00 0.00 0.00 67 1010.1
20260509212204 23 250 1.6 4.8 0.00 0.00 0.00 68 1010.1
20260509212105 23 250 1.6 3.2 0.00 0.00 0.00 67 1010.1
20260509212003 23 251 1.6 4.8 0.00 0.00 0.00 68 1010.3
20260509211904 23 243 1.6 4.8 0.00 0.00 0.00 68 1010.3
20260509211805 23 229 1.6 8.0 0.00 0.00 0.00 67 1010.1
20260509211703 23 245 1.6 8.0 0.00 0.00 0.00 68 1010.2
20260509211605 22 248 1.6 8.0 0.00 0.00 0.00 68 1010.2
20260509211505 22 242 0.0 8.0 0.00 0.00 0.00 68 1009.9
20260509211503 22 242 1.6 8.0 0.00 0.00 0.00 68 1010.1
20260509211404 22 293 1.6 8.0 0.00 0.00 0.00 67 1010.2
20260509211303 22 224 1.6 8.0 0.00 0.00 0.00 68 1010.2
20260509211104 22 267 3.2 9.7 0.00 0.00 0.00 67 1010.0
20260509211003 22 242 1.6 9.7 0.00 0.00 0.00 67 1010.0
20260509210903 22 242 3.2 9.7 0.00 0.00 0.00 68 1010.0
20260509210804 22 276 3.2 9.7 0.00 0.00 0.00 68 1010.0
20260509210703 22 270 3.2 11.3 0.00 0.00 0.00 68 1010.0
20260509210604 22 267 3.2 11.3 0.00 0.00 0.00 68 1010.0
20260509210504 22 315 3.2 11.3 0.00 0.00 0.00 68 1010.0
20260509210404 22 248 3.2 11.3 0.00 0.00 0.00 68 1010.0
20260509210304 22 278 3.2 11.3 0.00 0.00 0.00 67 1010.0
20260509210105 22 276 3.2 11.3 0.00 0.00 0.00 68 1010.0
20260509210003 22 231 4.8 11.3 0.00 0.00 0.00 67 1009.8
20260509205903 22 232 1.6 11.3 0.00 0.00 0.00 67 1010.1
20260509205804 22 225 1.6 6.4 0.00 0.00 0.00 69 1010.0
20260509205703 22 309 1.6 6.4 0.00 0.00 0.00 70 1010.2
20260509205503 22 248 1.6 6.4 0.00 0.00 0.00 70 1010.2
20260509205402 22 257 1.6 6.4 0.00 0.00 0.00 69 1010.2
20260509205306 22 257 1.6 6.4 0.00 0.00 0.00 69 1010.2
20260509205102 22 238 1.6 6.4 0.00 0.00 0.00 69 1010.3
20260509205002 22 276 1.6 6.4 0.00 0.00 0.00 70 1010.4
20260509204603 22 326 1.6 6.4 0.00 0.00 0.00 69 1010.3
20260509204503 22 249 1.6 6.4 0.00 0.00 0.00 68 1010.3
20260509204404 22 228 1.6 8.0 0.00 0.00 0.00 68 1010.2
20260509204203 22 267 1.6 8.0 0.00 0.00 0.00 69 1010.2
20260509204002 22 250 0.0 3.2 0.00 0.00 0.00 69 1010.2
20260509203902 22 246 0.0 3.2 0.00 0.00 0.00 70 1010.1
20260509203802 22 211 0.0 3.2 0.00 0.00 0.00 70 1010.1
20260509203702 22 211 0.0 3.2 0.00 0.00 0.00 70 1010.2
20260509203503 22 236 1.6 3.2 0.00 0.00 0.00 70 1010.2
20260509203402 22 238 1.6 3.2 0.00 0.00 0.00 70 1010.1
20260509203302 22 256 1.6 6.4 0.00 0.00 0.00 70 1010.1
20260509203202 22 250 1.6 6.4 0.00 0.00 0.00 70 1010.1
20260509203104 22 252 1.6 6.4 0.00 0.00 0.00 70 1010.2
20260509203004 22 264 0.0 6.4 0.00 0.00 0.00 70 1009.9
20260509203002 22 264 1.6 6.4 0.00 0.00 0.00 70 1010.2
20260509202903 22 269 1.6 6.4 0.00 0.00 0.00 70 1010.2
20260509202802 22 226 1.6 6.4 0.00 0.00 0.00 69 1010.2
20260509202702 22 240 3.2 6.4 0.00 0.00 0.00 69 1010.2
20260509202402 21 226 1.6 12.9 0.00 0.00 0.00 70 1010.3
20260509202306 21 209 1.6 12.9 0.00 0.00 0.00 70 1010.2
20260509202202 21 267 1.6 12.9 0.00 0.00 0.00 69 1010.3
20260509202103 21 271 1.6 12.9 0.00 0.00 0.00 69 1010.3
20260509202003 21 321 1.6 12.9 0.00 0.00 0.00 70 1010.3
20260509201903 21 282 1.6 12.9 0.00 0.00 0.00 69 1010.4
20260509201804 21 247 1.6 12.9 0.00 0.00 0.00 69 1010.3
20260509201703 22 249 1.6 14.5 0.00 0.00 0.00 69 1010.3
20260509201604 22 269 1.6 4.8 0.00 0.00 0.00 69 1010.3
20260509201503 22 270 0.0 4.8 0.00 0.00 0.00 69 1010.1
20260509201302 22 247 1.6 4.8 0.00 0.00 0.00 69 1010.4
20260509201202 22 262 1.6 4.8 0.00 0.00 0.00 69 1010.4
20260509201102 22 263 0.0 4.8 0.00 0.00 0.00 69 1010.3
20260509201002 22 238 0.0 4.8 0.00 0.00 0.00 69 1010.3
20260509200802 22 243 0.0 4.8 0.00 0.00 0.00 69 1010.2
20260509200705 22 243 0.0 4.8 0.00 0.00 0.00 69 1010.2
20260509200603 22 252 0.0 4.8 0.00 0.00 0.00 69 1010.3
20260509200503 22 283 0.0 1.6 0.00 0.00 0.00 70 1010.3
20260509200302 22 282 0.0 1.6 0.00 0.00 0.00 70 1010.3
20260509200002 22 287 0.0 1.6 0.00 0.00 0.00 70 1010.1
20260509195902 22 284 0.0 1.6 0.00 0.00 0.00 70 1010.2
20260509195602 22 158 0.0 4.8 0.00 0.00 0.00 70 1010.4
20260509195502 22 156 0.0 4.8 0.00 0.00 0.00 69 1010.3
20260509195402 22 233 0.0 4.8 0.00 0.00 0.00 69 1010.3
20260509195306 22 233 0.0 4.8 0.00 0.00 0.00 68 1010.3
20260509195203 22 245 0.0 4.8 0.00 0.00 0.00 68 1010.3
20260509195103 22 269 0.0 4.8 0.00 0.00 0.00 67 1010.4
20260509194902 22 253 0.0 1.6 0.00 0.00 0.00 69 1010.5
20260509194804 22 253 0.0 1.6 0.00 0.00 0.00 68 1010.4
20260509194702 22 250 0.0 1.6 0.00 0.00 0.00 69 1010.6
20260509194602 22 252 0.0 1.6 0.00 0.00 0.00 69 1010.5
20260509194529 22 250 0.0 4.8 0.00 0.00 0.00 69 1010.5
20260509194402 22 245 0.0 4.8 0.00 0.00 0.00 68 1010.5
20260509194303 22 271 1.6 4.8 0.00 0.00 0.00 68 1010.7
20260509194202 22 161 1.6 4.8 0.00 0.00 0.00 69 1010.6
20260509194102 22 177 1.6 4.8 0.00 0.00 0.00 70 1010.7
20260509194002 22 173 1.6 4.8 0.00 0.00 0.00 70 1010.7
20260509193902 22 257 1.6 4.8 0.00 0.00 0.00 69 1010.7
20260509193803 22 255 1.6 4.8 0.00 0.00 0.00 68 1010.7
20260509193702 22 276 1.6 4.8 0.00 0.00 0.00 69 1010.7
20260509193602 22 271 1.6 4.8 0.00 0.00 0.00 69 1010.7
20260509193502 22 271 1.6 4.8 0.00 0.00 0.00 68 1010.9
20260509193302 22 253 1.6 4.8 0.00 0.00 0.00 67 1010.7
20260509193202 22 240 1.6 4.8 0.00 0.00 0.00 67 1010.7
20260509193104 22 240 0.0 4.8 0.00 0.00 0.00 67 1010.7
20260509193003 22 246 0.0 4.8 0.00 0.00 0.00 67 1010.5
20260509192802 22 231 1.6 4.8 0.00 0.00 0.00 67 1010.7
20260509192702 22 238 1.6 4.8 0.00 0.00 0.00 66 1010.8
20260509192603 22 236 1.6 4.8 0.00 0.00 0.00 65 1010.8
20260509192502 22 240 1.6 4.8 0.00 0.00 0.00 66 1010.9
20260509192402 22 245 1.6 4.8 0.00 0.00 0.00 65 1010.7
20260509192306 22 248 1.6 4.8 0.00 0.00 0.00 64 1010.8
20260509192202 22 236 1.6 4.8 0.00 0.00 0.00 66 1010.7
20260509192006 22 253 1.6 4.8 0.00 0.00 0.00 65 1010.8
20260509191903 22 282 1.6 6.4 0.00 0.00 0.00 65 1010.8
20260509191803 22 243 1.6 6.4 0.00 0.00 0.00 65 1010.7
20260509191703 22 260 1.6 6.4 0.00 0.00 0.00 65 1010.8
20260509191602 22 243 1.6 6.4 0.00 0.00 0.00 65 1010.8
20260509191503 22 243 1.6 6.4 0.00 0.00 0.00 65 1010.8
20260509191403 22 184 1.6 6.4 0.00 0.00 0.00 65 1010.7
20260509191303 22 295 1.6 6.4 0.00 0.00 0.00 64 1010.8
20260509191104 22 245 1.6 6.4 0.00 0.00 0.00 65 1010.9
20260509190902 22 257 1.6 4.8 0.00 0.00 0.00 66 1010.8
20260509190703 22 267 1.6 4.8 0.00 0.00 0.00 66 1010.7
20260509190603 22 262 1.6 4.8 0.00 0.00 0.00 66 1010.8
20260509190304 22 256 0.0 4.8 0.00 0.00 0.00 65 1010.9
20260509190202 22 240 0.0 4.8 0.00 0.00 0.00 67 1010.8
20260509190005 22 283 0.0 3.2 0.00 0.00 0.00 65 1010.8
20260509185802 22 257 1.6 4.8 0.00 0.00 0.00 65 1010.9
20260509185701 22 231 1.6 6.4 0.00 0.00 0.00 66 1011.0
20260509185602 22 250 1.6 6.4 0.00 0.00 0.00 67 1010.9
20260509185503 22 243 1.6 6.4 0.00 0.00 0.00 67 1010.9
20260509185402 22 158 1.6 6.4 0.00 0.00 0.00 66 1010.8
20260509185306 22 188 1.6 6.4 0.00 0.00 0.00 68 1010.8
20260509185202 22 216 1.6 6.4 0.00 0.00 0.00 68 1011.0
20260509185104 22 240 1.6 6.4 0.00 0.00 0.00 67 1011.0
20260509185002 22 239 1.6 6.4 0.00 0.00 0.00 66 1011.0
20260509184903 22 278 1.6 6.4 0.00 0.00 0.00 66 1011.0
20260509184802 22 248 1.6 6.4 0.00 0.00 0.00 66 1011.0
20260509184703 22 252 1.6 6.4 0.00 0.00 0.00 66 1011.2
20260509184603 22 304 1.6 6.4 0.00 0.00 0.00 66 1011.1
20260509184507 22 261 0.0 8.0 0.00 0.00 0.00 66 1010.9
20260509184502 22 261 1.6 8.0 0.00 0.00 0.00 66 1011.1
20260509184302 22 243 1.6 6.4 0.00 0.00 0.00 67 1011.1
20260509184202 22 285 1.6 6.4 0.00 0.00 0.00 66 1011.0
20260509184103 22 274 1.6 8.0 0.00 0.00 0.00 66 1011.0
20260509183902 22 251 1.6 8.0 0.00 0.00 0.00 66 1011.1
20260509183801 22 253 1.6 8.0 0.00 0.00 0.00 65 1011.0
20260509183702 22 282 1.6 8.0 0.00 0.00 0.00 66 1011.0
20260509183601 22 242 1.6 8.0 0.00 0.00 0.00 65 1011.0
20260509183504 22 257 1.6 8.0 0.00 0.00 0.00 65 1011.0
20260509183402 22 313 1.6 8.0 0.00 0.00 0.00 64 1010.8
20260509183302 22 240 1.6 8.0 0.00 0.00 0.00 63 1011.0
20260509183103 22 253 1.6 6.4 0.00 0.00 0.00 64 1011.1
20260509183004 22 252 0.0 6.4 0.00 0.00 0.00 63 1010.8
20260509183002 22 252 1.6 6.4 0.00 0.00 0.00 63 1011.1
20260509182902 22 259 1.6 6.4 0.00 0.00 0.00 63 1011.1
20260509182802 22 260 3.2 6.4 0.00 0.00 0.00 62 1011.2
20260509182702 22 269 3.2 12.9 0.00 0.00 0.00 63 1011.0
20260509182602 22 242 3.2 12.9 0.00 0.00 0.00 62 1011.0
20260509182503 22 240 3.2 12.9 0.00 0.00 0.00 62 1011.1
20260509182402 22 248 3.2 12.9 0.00 0.00 0.00 61 1011.1
20260509182306 22 253 3.2 12.9 0.00 0.00 0.00 61 1011.0
20260509182203 22 265 3.2 12.9 0.00 0.00 0.00 61 1011.1
20260509182003 23 250 3.2 12.9 0.00 0.00 0.00 60 1011.1
20260509181902 23 264 1.6 12.9 0.00 0.00 0.00 60 1011.2
20260509181802 23 221 1.6 9.7 0.00 0.00 0.00 59 1011.1
20260509181703 23 302 1.6 8.0 0.00 0.00 0.00 59 1011.0
20260509181602 23 280 1.6 8.0 0.00 0.00 0.00 61 1011.2
20260509181503 23 252 1.6 8.0 0.00 0.00 0.00 59 1011.2
20260509181403 23 256 1.6 8.0 0.00 0.00 0.00 60 1011.1
20260509181302 23 277 1.6 8.0 0.00 0.00 0.00 58 1011.1
20260509181202 23 260 1.6 8.0 0.00 0.00 0.00 59 1011.1
20260509181102 23 242 0.0 9.7 0.00 0.00 0.00 60 1011.0
20260509181004 23 226 1.6 4.8 0.00 0.00 0.00 61 1011.0
20260509180903 23 119 1.6 4.8 0.00 0.00 0.00 60 1011.1
20260509180802 23 159 1.6 4.8 0.00 0.00 0.00 61 1011.1
20260509180702 23 262 1.6 4.8 0.00 0.00 0.00 61 1011.1
20260509180603 23 245 1.6 6.4 0.00 0.00 0.00 61 1011.2
20260509180402 22 263 3.2 6.4 0.00 0.00 0.00 61 1011.3
20260509180302 22 278 3.2 6.4 0.00 0.00 0.00 62 1011.3
20260509180202 22 129 3.2 8.0 0.00 0.00 0.00 60 1011.3
20260509180003 22 253 1.6 8.0 0.00 0.00 0.00 60 1011.3
20260509175903 22 249 3.2 8.0 0.00 0.00 0.00 61 1011.5
20260509175802 22 249 3.2 8.0 0.00 0.00 0.00 61 1011.6
20260509175402 23 242 1.6 8.0 0.00 0.00 0.00 58 1011.6
20260509175301 23 286 1.6 9.7 0.00 0.00 0.00 59 1011.7
20260509175202 23 243 1.6 9.7 0.00 0.00 0.00 59 1011.6
20260509175101 23 225 1.6 9.7 0.00 0.00 0.00 61 1011.7
20260509175002 23 207 1.6 9.7 0.00 0.00 0.00 59 1011.6
20260509174901 22 259 1.6 9.7 0.00 0.00 0.00 59 1011.6
20260509174801 22 262 1.6 9.7 0.00 0.00 0.00 60 1011.7
20260509174701 22 124 1.6 9.7 0.00 0.00 0.00 60 1011.7
20260509174502 22 280 1.6 9.7 0.00 0.00 0.00 59 1011.7
20260509174402 22 262 1.6 9.7 0.00 0.00 0.00 60 1011.8
20260509174302 22 313 1.6 4.8 0.00 0.00 0.00 59 1011.8
20260509174201 22 273 1.6 4.8 0.00 0.00 0.00 60 1011.7
20260509174101 22 259 1.6 8.0 0.00 0.00 0.00 59 1011.7
20260509174002 22 285 1.6 8.0 0.00 0.00 0.00 60 1011.7
20260509173801 22 243 1.6 8.0 0.00 0.00 0.00 62 1011.8
20260509173702 22 197 1.6 8.0 0.00 0.00 0.00 61 1011.8
20260509173501 22 201 3.2 8.0 0.00 0.00 0.00 60 1011.8
20260509173401 22 240 3.2 8.0 0.00 0.00 0.00 60 1011.8
20260509173300 22 248 3.2 8.0 0.00 0.00 0.00 59 1011.7
20260509173201 22 265 3.2 8.0 0.00 0.00 0.00 60 1011.7
20260509173101 22 238 3.2 8.0 0.00 0.00 0.00 60 1011.8
20260509173002 22 233 3.2 8.0 0.00 0.00 0.00 58 1011.7
20260509172903 22 282 3.2 8.0 0.00 0.00 0.00 59 1011.8
20260509172801 22 245 3.2 8.0 0.00 0.00 0.00 60 1011.9
20260509172701 22 263 1.6 8.0 0.00 0.00 0.00 59 1011.9
20260509172502 22 269 1.6 4.8 0.00 0.00 0.00 59 1012.0
20260509172401 22 249 1.6 4.8 0.00 0.00 0.00 59 1011.9
20260509172306 22 239 1.6 4.8 0.00 0.00 0.00 60 1011.8
20260509172201 22 243 1.6 6.4 0.00 0.00 0.00 59 1011.9
20260509172101 22 242 1.6 6.4 0.00 0.00 0.00 59 1011.9
20260509172003 22 236 1.6 6.4 0.00 0.00 0.00 59 1012.0
20260509171902 22 232 1.6 6.4 0.00 0.00 0.00 60 1011.9
20260509171601 22 243 1.6 6.4 0.00 0.00 0.00 60 1012.0
20260509171502 22 300 1.6 6.4 0.00 0.00 0.00 60 1012.0
20260509171401 22 252 1.6 6.4 0.00 0.00 0.00 61 1011.9
20260509171302 22 259 0.0 4.8 0.00 0.00 0.00 62 1012.0
20260509171201 22 239 0.0 4.8 0.00 0.00 0.00 61 1012.1
20260509171101 22 164 0.0 4.8 0.00 0.00 0.00 61 1012.1
20260509171002 22 236 0.0 4.8 0.00 0.00 0.00 62 1012.1
20260509170701 22 230 1.6 6.4 0.00 0.00 0.00 65 1012.1
20260509170601 22 219 1.6 6.4 0.00 0.00 0.00 64 1012.0
20260509170301 22 245 1.6 6.4 0.00 0.00 0.00 64 1012.1
20260509170001 22 288 1.6 6.4 0.00 0.00 0.00 61 1011.9
20260509165802 22 250 1.6 6.4 0.00 0.00 0.00 61 1012.2
20260509165703 22 260 1.6 6.4 0.00 0.00 0.00 63 1012.2
20260509165602 22 180 1.6 6.4 0.00 0.00 0.00 62 1012.2
20260509165502 22 150 1.6 6.4 0.00 0.00 0.00 63 1012.3
20260509165402 22 257 1.6 6.4 0.00 0.00 0.00 64 1012.3
20260509165301 22 58 1.6 6.4 0.00 0.00 0.00 63 1012.4
20260509165201 22 259 1.6 6.4 0.00 0.00 0.00 62 1012.4
20260509165100 22 229 1.6 6.4 0.00 0.00 0.00 63 1012.5
20260509165002 22 232 1.6 6.4 0.00 0.00 0.00 63 1012.4
20260509164902 22 165 1.6 6.4 0.00 0.00 0.00 63 1012.6
20260509164801 22 238 1.6 6.4 0.00 0.00 0.00 61 1012.6
20260509164701 22 259 1.6 6.4 0.00 0.00 0.00 63 1012.5
20260509164602 22 239 1.6 6.4 0.00 0.00 0.00 61 1012.5
20260509164501 22 269 1.6 6.4 0.00 0.00 0.00 64 1012.5
20260509164401 22 191 1.6 8.0 0.00 0.00 0.00 63 1012.5
20260509164201 22 224 1.6 8.0 0.00 0.00 0.00 65 1012.4
20260509164101 21 256 1.6 8.0 0.00 0.00 0.00 63 1012.4
20260509164001 21 257 1.6 8.0 0.00 0.00 0.00 62 1012.5
20260509163901 21 271 1.6 8.0 0.00 0.00 0.00 64 1012.4
20260509163802 21 266 1.6 8.0 0.00 0.00 0.00 62 1012.5
20260509163701 21 265 1.6 8.0 0.00 0.00 0.00 63 1012.6
20260509163601 21 249 1.6 8.0 0.00 0.00 0.00 63 1012.6
20260509163500 21 256 1.6 9.7 0.00 0.00 0.00 63 1012.5
20260509163401 21 250 1.6 6.4 0.00 0.00 0.00 64 1012.5
20260509163301 21 246 1.6 6.4 0.00 0.00 0.00 64 1012.5
20260509163201 21 244 1.6 9.7 0.00 0.00 0.00 65 1012.5
20260509163101 21 238 1.6 9.7 0.00 0.00 0.00 64 1012.5
20260509163007 21 284 1.6 9.7 0.00 0.00 0.00 65 1012.4
20260509163001 21 284 1.6 9.7 0.00 0.00 0.00 65 1012.2
20260509162901 21 255 1.6 9.7 0.00 0.00 0.00 65 1012.4